<?xml version="1.0" encoding="UTF-8" standalone="no" ?>
<gpx xmlns="http://www.topografix.com/GPX/1/1" creator="Cyclopedia.no" version="1.1" xmlns:xsi="http://www.w3.org/2001/XMLSchema-instance" xsi:schemaLocation="http://www.topografix.com/GPX/1/1 http://www.topografix.com/GPX/1/1/gpx.xsd">
	<metadata>
		<link href="http://www.cyclopedia.no"><text>Cyclopedia.no</text></link>
		<time>2026-05-06T01:00:30Z</time>	</metadata>
	<wpt lat="58.122438" lon="7.05256"><ele>-27</ele><time>0001-01-01T00:00:00Z</time><name>Start</name></wpt>
	<wpt lat="58.122438" lon="7.05256"><ele>-27</ele><time>0001-01-01T00:00:00Z</time><name>Lyngdal</name></wpt>
	<wpt lat="58.469075" lon="7.227327"><ele>191</ele><time>0001-01-01T00:00:00Z</time><name>Eiken</name></wpt>
	<wpt lat="58.314842" lon="6.963638"><ele>6</ele><time>0001-01-01T00:00:00Z</time><name>Kvinesdal (Liknes)</name></wpt>
	<wpt lat="58.122948" lon="7.05312699999999"><ele>12</ele><time>0001-01-01T00:00:00Z</time><name>Lyngdal</name></wpt>
	<wpt lat="58.122971" lon="7.05309600000001"><ele>4</ele><time>0001-01-01T00:00:00Z</time><name>Slutt</name></wpt>
	<trk>
		<name>Kvinesheia rundt</name>
		<trkseg>
				<trkpt lat="58.12244" lon="7.05256">
					<ele>-27</ele>
					<time>0001-01-01T00:00:00Z</time>
				</trkpt>
				<trkpt lat="58.12286" lon="7.05275">
					<ele>10</ele>
					<time>0001-01-01T00:00:00Z</time>
				</trkpt>
				<trkpt lat="58.12297" lon="7.05298">
					<ele>10</ele>
					<time>0001-01-01T00:00:00Z</time>
				</trkpt>
				<trkpt lat="58.12299" lon="7.05313">
					<ele>10</ele>
					<time>0001-01-01T00:00:00Z</time>
				</trkpt>
				<trkpt lat="58.12307" lon="7.05319">
					<ele>10</ele>
					<time>0001-01-01T00:00:00Z</time>
				</trkpt>
				<trkpt lat="58.12331" lon="7.05367">
					<ele>8</ele>
					<time>0001-01-01T00:00:00Z</time>
				</trkpt>
				<trkpt lat="58.12345" lon="7.05402">
					<ele>8</ele>
					<time>0001-01-01T00:00:00Z</time>
				</trkpt>
				<trkpt lat="58.12351" lon="7.05372">
					<ele>7</ele>
					<time>0001-01-01T00:00:00Z</time>
				</trkpt>
				<trkpt lat="58.12325" lon="7.05322">
					<ele>6</ele>
					<time>0001-01-01T00:00:00Z</time>
				</trkpt>
				<trkpt lat="58.12283" lon="7.05266">
					<ele>6</ele>
					<time>0001-01-01T00:00:00Z</time>
				</trkpt>
				<trkpt lat="58.12263" lon="7.05271">
					<ele>7</ele>
					<time>0001-01-01T00:00:00Z</time>
				</trkpt>
				<trkpt lat="58.12281" lon="7.05278">
					<ele>9</ele>
					<time>0001-01-01T00:00:00Z</time>
				</trkpt>
				<trkpt lat="58.12293" lon="7.05309">
					<ele>9</ele>
					<time>0001-01-01T00:00:00Z</time>
				</trkpt>
				<trkpt lat="58.12307" lon="7.05325">
					<ele>9</ele>
					<time>0001-01-01T00:00:00Z</time>
				</trkpt>
				<trkpt lat="58.12314" lon="7.05341">
					<ele>11</ele>
					<time>0001-01-01T00:00:00Z</time>
				</trkpt>
				<trkpt lat="58.12333" lon="7.05356">
					<ele>10</ele>
					<time>0001-01-01T00:00:00Z</time>
				</trkpt>
				<trkpt lat="58.12356" lon="7.05326">
					<ele>9</ele>
					<time>0001-01-01T00:00:00Z</time>
				</trkpt>
				<trkpt lat="58.12361" lon="7.05282">
					<ele>8</ele>
					<time>0001-01-01T00:00:00Z</time>
				</trkpt>
				<trkpt lat="58.12333" lon="7.05021">
					<ele>4</ele>
					<time>0001-01-01T00:00:00Z</time>
				</trkpt>
				<trkpt lat="58.12314" lon="7.04821">
					<ele>3</ele>
					<time>0001-01-01T00:00:00Z</time>
				</trkpt>
				<trkpt lat="58.12334" lon="7.04776">
					<ele>3</ele>
					<time>0001-01-01T00:00:00Z</time>
				</trkpt>
				<trkpt lat="58.12462" lon="7.04706">
					<ele>7</ele>
					<time>0001-01-01T00:00:00Z</time>
				</trkpt>
				<trkpt lat="58.12601" lon="7.04614">
					<ele>9</ele>
					<time>0001-01-01T00:00:00Z</time>
				</trkpt>
				<trkpt lat="58.12734" lon="7.04536">
					<ele>7</ele>
					<time>0001-01-01T00:00:00Z</time>
				</trkpt>
				<trkpt lat="58.12917" lon="7.04333">
					<ele>6</ele>
					<time>0001-01-01T00:00:00Z</time>
				</trkpt>
				<trkpt lat="58.13057" lon="7.04115">
					<ele>6</ele>
					<time>0001-01-01T00:00:00Z</time>
				</trkpt>
				<trkpt lat="58.13111" lon="7.03940">
					<ele>4</ele>
					<time>0001-01-01T00:00:00Z</time>
				</trkpt>
				<trkpt lat="58.13120" lon="7.03872">
					<ele>4</ele>
					<time>0001-01-01T00:00:00Z</time>
				</trkpt>
				<trkpt lat="58.13140" lon="7.03833">
					<ele>4</ele>
					<time>0001-01-01T00:00:00Z</time>
				</trkpt>
				<trkpt lat="58.13224" lon="7.03698">
					<ele>3</ele>
					<time>0001-01-01T00:00:00Z</time>
				</trkpt>
				<trkpt lat="58.13253" lon="7.03711">
					<ele>3</ele>
					<time>0001-01-01T00:00:00Z</time>
				</trkpt>
				<trkpt lat="58.13402" lon="7.03981">
					<ele>4</ele>
					<time>0001-01-01T00:00:00Z</time>
				</trkpt>
				<trkpt lat="58.13492" lon="7.04226">
					<ele>4</ele>
					<time>0001-01-01T00:00:00Z</time>
				</trkpt>
				<trkpt lat="58.13557" lon="7.04585">
					<ele>5</ele>
					<time>0001-01-01T00:00:00Z</time>
				</trkpt>
				<trkpt lat="58.13624" lon="7.05043">
					<ele>4</ele>
					<time>0001-01-01T00:00:00Z</time>
				</trkpt>
				<trkpt lat="58.13656" lon="7.05446">
					<ele>8</ele>
					<time>0001-01-01T00:00:00Z</time>
				</trkpt>
				<trkpt lat="58.13700" lon="7.05832">
					<ele>7</ele>
					<time>0001-01-01T00:00:00Z</time>
				</trkpt>
				<trkpt lat="58.13748" lon="7.06133">
					<ele>7</ele>
					<time>0001-01-01T00:00:00Z</time>
				</trkpt>
				<trkpt lat="58.13869" lon="7.06506">
					<ele>7</ele>
					<time>0001-01-01T00:00:00Z</time>
				</trkpt>
				<trkpt lat="58.13912" lon="7.06765">
					<ele>8</ele>
					<time>0001-01-01T00:00:00Z</time>
				</trkpt>
				<trkpt lat="58.13936" lon="7.07033">
					<ele>5</ele>
					<time>0001-01-01T00:00:00Z</time>
				</trkpt>
				<trkpt lat="58.14005" lon="7.07174">
					<ele>5</ele>
					<time>0001-01-01T00:00:00Z</time>
				</trkpt>
				<trkpt lat="58.14206" lon="7.07440">
					<ele>7</ele>
					<time>0001-01-01T00:00:00Z</time>
				</trkpt>
				<trkpt lat="58.14387" lon="7.07750">
					<ele>8</ele>
					<time>0001-01-01T00:00:00Z</time>
				</trkpt>
				<trkpt lat="58.14563" lon="7.07908">
					<ele>11</ele>
					<time>0001-01-01T00:00:00Z</time>
				</trkpt>
				<trkpt lat="58.14722" lon="7.08088">
					<ele>10</ele>
					<time>0001-01-01T00:00:00Z</time>
				</trkpt>
				<trkpt lat="58.14796" lon="7.08251">
					<ele>10</ele>
					<time>0001-01-01T00:00:00Z</time>
				</trkpt>
				<trkpt lat="58.14823" lon="7.08486">
					<ele>9</ele>
					<time>0001-01-01T00:00:00Z</time>
				</trkpt>
				<trkpt lat="58.14870" lon="7.08696">
					<ele>7</ele>
					<time>0001-01-01T00:00:00Z</time>
				</trkpt>
				<trkpt lat="58.14970" lon="7.08964">
					<ele>6</ele>
					<time>0001-01-01T00:00:00Z</time>
				</trkpt>
				<trkpt lat="58.15094" lon="7.09053">
					<ele>8</ele>
					<time>0001-01-01T00:00:00Z</time>
				</trkpt>
				<trkpt lat="58.15278" lon="7.09068">
					<ele>8</ele>
					<time>0001-01-01T00:00:00Z</time>
				</trkpt>
				<trkpt lat="58.15482" lon="7.09094">
					<ele>8</ele>
					<time>0001-01-01T00:00:00Z</time>
				</trkpt>
				<trkpt lat="58.15673" lon="7.09171">
					<ele>14</ele>
					<time>0001-01-01T00:00:00Z</time>
				</trkpt>
				<trkpt lat="58.15754" lon="7.09171">
					<ele>14</ele>
					<time>0001-01-01T00:00:00Z</time>
				</trkpt>
				<trkpt lat="58.15842" lon="7.09129">
					<ele>11</ele>
					<time>0001-01-01T00:00:00Z</time>
				</trkpt>
				<trkpt lat="58.16020" lon="7.09077">
					<ele>13</ele>
					<time>0001-01-01T00:00:00Z</time>
				</trkpt>
				<trkpt lat="58.16205" lon="7.08972">
					<ele>12</ele>
					<time>0001-01-01T00:00:00Z</time>
				</trkpt>
				<trkpt lat="58.16457" lon="7.08846">
					<ele>10</ele>
					<time>0001-01-01T00:00:00Z</time>
				</trkpt>
				<trkpt lat="58.16526" lon="7.08846">
					<ele>8</ele>
					<time>0001-01-01T00:00:00Z</time>
				</trkpt>
				<trkpt lat="58.16570" lon="7.08883">
					<ele>6</ele>
					<time>0001-01-01T00:00:00Z</time>
				</trkpt>
				<trkpt lat="58.16662" lon="7.08980">
					<ele>7</ele>
					<time>0001-01-01T00:00:00Z</time>
				</trkpt>
				<trkpt lat="58.16685" lon="7.08988">
					<ele>6</ele>
					<time>0001-01-01T00:00:00Z</time>
				</trkpt>
				<trkpt lat="58.16797" lon="7.08927">
					<ele>9</ele>
					<time>0001-01-01T00:00:00Z</time>
				</trkpt>
				<trkpt lat="58.16918" lon="7.08864">
					<ele>10</ele>
					<time>0001-01-01T00:00:00Z</time>
				</trkpt>
				<trkpt lat="58.17115" lon="7.08937">
					<ele>9</ele>
					<time>0001-01-01T00:00:00Z</time>
				</trkpt>
				<trkpt lat="58.17304" lon="7.09067">
					<ele>9</ele>
					<time>0001-01-01T00:00:00Z</time>
				</trkpt>
				<trkpt lat="58.17422" lon="7.09213">
					<ele>10</ele>
					<time>0001-01-01T00:00:00Z</time>
				</trkpt>
				<trkpt lat="58.17606" lon="7.09484">
					<ele>15</ele>
					<time>0001-01-01T00:00:00Z</time>
				</trkpt>
				<trkpt lat="58.17758" lon="7.09705">
					<ele>19</ele>
					<time>0001-01-01T00:00:00Z</time>
				</trkpt>
				<trkpt lat="58.17899" lon="7.09836">
					<ele>23</ele>
					<time>0001-01-01T00:00:00Z</time>
				</trkpt>
				<trkpt lat="58.17945" lon="7.09846">
					<ele>25</ele>
					<time>0001-01-01T00:00:00Z</time>
				</trkpt>
				<trkpt lat="58.18128" lon="7.09808">
					<ele>28</ele>
					<time>0001-01-01T00:00:00Z</time>
				</trkpt>
				<trkpt lat="58.18270" lon="7.09912">
					<ele>25</ele>
					<time>0001-01-01T00:00:00Z</time>
				</trkpt>
				<trkpt lat="58.18455" lon="7.10098">
					<ele>27</ele>
					<time>0001-01-01T00:00:00Z</time>
				</trkpt>
				<trkpt lat="58.18586" lon="7.10330">
					<ele>28</ele>
					<time>0001-01-01T00:00:00Z</time>
				</trkpt>
				<trkpt lat="58.18591" lon="7.10348">
					<ele>28</ele>
					<time>0001-01-01T00:00:00Z</time>
				</trkpt>
				<trkpt lat="58.18660" lon="7.10694">
					<ele>28</ele>
					<time>0001-01-01T00:00:00Z</time>
				</trkpt>
				<trkpt lat="58.18674" lon="7.10922">
					<ele>29</ele>
					<time>0001-01-01T00:00:00Z</time>
				</trkpt>
				<trkpt lat="58.18730" lon="7.11086">
					<ele>29</ele>
					<time>0001-01-01T00:00:00Z</time>
				</trkpt>
				<trkpt lat="58.18865" lon="7.11261">
					<ele>30</ele>
					<time>0001-01-01T00:00:00Z</time>
				</trkpt>
				<trkpt lat="58.18997" lon="7.11306">
					<ele>31</ele>
					<time>0001-01-01T00:00:00Z</time>
				</trkpt>
				<trkpt lat="58.19014" lon="7.11315">
					<ele>31</ele>
					<time>0001-01-01T00:00:00Z</time>
				</trkpt>
				<trkpt lat="58.19180" lon="7.11478">
					<ele>32</ele>
					<time>0001-01-01T00:00:00Z</time>
				</trkpt>
				<trkpt lat="58.19366" lon="7.11597">
					<ele>31</ele>
					<time>0001-01-01T00:00:00Z</time>
				</trkpt>
				<trkpt lat="58.19498" lon="7.11786">
					<ele>31</ele>
					<time>0001-01-01T00:00:00Z</time>
				</trkpt>
				<trkpt lat="58.19632" lon="7.12145">
					<ele>32</ele>
					<time>0001-01-01T00:00:00Z</time>
				</trkpt>
				<trkpt lat="58.19730" lon="7.12288">
					<ele>33</ele>
					<time>0001-01-01T00:00:00Z</time>
				</trkpt>
				<trkpt lat="58.19860" lon="7.12321">
					<ele>31</ele>
					<time>0001-01-01T00:00:00Z</time>
				</trkpt>
				<trkpt lat="58.19962" lon="7.12354">
					<ele>30</ele>
					<time>0001-01-01T00:00:00Z</time>
				</trkpt>
				<trkpt lat="58.19988" lon="7.12398">
					<ele>30</ele>
					<time>0001-01-01T00:00:00Z</time>
				</trkpt>
				<trkpt lat="58.20018" lon="7.12497">
					<ele>31</ele>
					<time>0001-01-01T00:00:00Z</time>
				</trkpt>
				<trkpt lat="58.20046" lon="7.12545">
					<ele>31</ele>
					<time>0001-01-01T00:00:00Z</time>
				</trkpt>
				<trkpt lat="58.20062" lon="7.12562">
					<ele>31</ele>
					<time>0001-01-01T00:00:00Z</time>
				</trkpt>
				<trkpt lat="58.20098" lon="7.12568">
					<ele>32</ele>
					<time>0001-01-01T00:00:00Z</time>
				</trkpt>
				<trkpt lat="58.20165" lon="7.12566">
					<ele>30</ele>
					<time>0001-01-01T00:00:00Z</time>
				</trkpt>
				<trkpt lat="58.20268" lon="7.12662">
					<ele>31</ele>
					<time>0001-01-01T00:00:00Z</time>
				</trkpt>
				<trkpt lat="58.20366" lon="7.12803">
					<ele>34</ele>
					<time>0001-01-01T00:00:00Z</time>
				</trkpt>
				<trkpt lat="58.20410" lon="7.12842">
					<ele>35</ele>
					<time>0001-01-01T00:00:00Z</time>
				</trkpt>
				<trkpt lat="58.20424" lon="7.12854">
					<ele>35</ele>
					<time>0001-01-01T00:00:00Z</time>
				</trkpt>
				<trkpt lat="58.20482" lon="7.13084">
					<ele>39</ele>
					<time>0001-01-01T00:00:00Z</time>
				</trkpt>
				<trkpt lat="58.20578" lon="7.13314">
					<ele>40</ele>
					<time>0001-01-01T00:00:00Z</time>
				</trkpt>
				<trkpt lat="58.20725" lon="7.13477">
					<ele>40</ele>
					<time>0001-01-01T00:00:00Z</time>
				</trkpt>
				<trkpt lat="58.20906" lon="7.13610">
					<ele>39</ele>
					<time>0001-01-01T00:00:00Z</time>
				</trkpt>
				<trkpt lat="58.21049" lon="7.13696">
					<ele>34</ele>
					<time>0001-01-01T00:00:00Z</time>
				</trkpt>
				<trkpt lat="58.21178" lon="7.13667">
					<ele>31</ele>
					<time>0001-01-01T00:00:00Z</time>
				</trkpt>
				<trkpt lat="58.21215" lon="7.13683">
					<ele>31</ele>
					<time>0001-01-01T00:00:00Z</time>
				</trkpt>
				<trkpt lat="58.21327" lon="7.13827">
					<ele>35</ele>
					<time>0001-01-01T00:00:00Z</time>
				</trkpt>
				<trkpt lat="58.21451" lon="7.14045">
					<ele>35</ele>
					<time>0001-01-01T00:00:00Z</time>
				</trkpt>
				<trkpt lat="58.21585" lon="7.14237">
					<ele>37</ele>
					<time>0001-01-01T00:00:00Z</time>
				</trkpt>
				<trkpt lat="58.21663" lon="7.14483">
					<ele>38</ele>
					<time>0001-01-01T00:00:00Z</time>
				</trkpt>
				<trkpt lat="58.21765" lon="7.14709">
					<ele>38</ele>
					<time>0001-01-01T00:00:00Z</time>
				</trkpt>
				<trkpt lat="58.21950" lon="7.14926">
					<ele>38</ele>
					<time>0001-01-01T00:00:00Z</time>
				</trkpt>
				<trkpt lat="58.22146" lon="7.15178">
					<ele>39</ele>
					<time>0001-01-01T00:00:00Z</time>
				</trkpt>
				<trkpt lat="58.22158" lon="7.15203">
					<ele>39</ele>
					<time>0001-01-01T00:00:00Z</time>
				</trkpt>
				<trkpt lat="58.22230" lon="7.15472">
					<ele>39</ele>
					<time>0001-01-01T00:00:00Z</time>
				</trkpt>
				<trkpt lat="58.22343" lon="7.15641">
					<ele>39</ele>
					<time>0001-01-01T00:00:00Z</time>
				</trkpt>
				<trkpt lat="58.22536" lon="7.15805">
					<ele>39</ele>
					<time>0001-01-01T00:00:00Z</time>
				</trkpt>
				<trkpt lat="58.22645" lon="7.15823">
					<ele>41</ele>
					<time>0001-01-01T00:00:00Z</time>
				</trkpt>
				<trkpt lat="58.22671" lon="7.15823">
					<ele>41</ele>
					<time>0001-01-01T00:00:00Z</time>
				</trkpt>
				<trkpt lat="58.22724" lon="7.15895">
					<ele>41</ele>
					<time>0001-01-01T00:00:00Z</time>
				</trkpt>
				<trkpt lat="58.22829" lon="7.16169">
					<ele>41</ele>
					<time>0001-01-01T00:00:00Z</time>
				</trkpt>
				<trkpt lat="58.22951" lon="7.16258">
					<ele>40</ele>
					<time>0001-01-01T00:00:00Z</time>
				</trkpt>
				<trkpt lat="58.22998" lon="7.16282">
					<ele>40</ele>
					<time>0001-01-01T00:00:00Z</time>
				</trkpt>
				<trkpt lat="58.23117" lon="7.16419">
					<ele>43</ele>
					<time>0001-01-01T00:00:00Z</time>
				</trkpt>
				<trkpt lat="58.23288" lon="7.16616">
					<ele>43</ele>
					<time>0001-01-01T00:00:00Z</time>
				</trkpt>
				<trkpt lat="58.23379" lon="7.16732">
					<ele>43</ele>
					<time>0001-01-01T00:00:00Z</time>
				</trkpt>
				<trkpt lat="58.23438" lon="7.16874">
					<ele>43</ele>
					<time>0001-01-01T00:00:00Z</time>
				</trkpt>
				<trkpt lat="58.23543" lon="7.17121">
					<ele>44</ele>
					<time>0001-01-01T00:00:00Z</time>
				</trkpt>
				<trkpt lat="58.23709" lon="7.17463">
					<ele>45</ele>
					<time>0001-01-01T00:00:00Z</time>
				</trkpt>
				<trkpt lat="58.23740" lon="7.17528">
					<ele>45</ele>
					<time>0001-01-01T00:00:00Z</time>
				</trkpt>
				<trkpt lat="58.23850" lon="7.17714">
					<ele>46</ele>
					<time>0001-01-01T00:00:00Z</time>
				</trkpt>
				<trkpt lat="58.23975" lon="7.17909">
					<ele>45</ele>
					<time>0001-01-01T00:00:00Z</time>
				</trkpt>
				<trkpt lat="58.24135" lon="7.18159">
					<ele>43</ele>
					<time>0001-01-01T00:00:00Z</time>
				</trkpt>
				<trkpt lat="58.24271" lon="7.18244">
					<ele>47</ele>
					<time>0001-01-01T00:00:00Z</time>
				</trkpt>
				<trkpt lat="58.24434" lon="7.18331">
					<ele>50</ele>
					<time>0001-01-01T00:00:00Z</time>
				</trkpt>
				<trkpt lat="58.24637" lon="7.18440">
					<ele>48</ele>
					<time>0001-01-01T00:00:00Z</time>
				</trkpt>
				<trkpt lat="58.24892" lon="7.18576">
					<ele>49</ele>
					<time>0001-01-01T00:00:00Z</time>
				</trkpt>
				<trkpt lat="58.25069" lon="7.18670">
					<ele>51</ele>
					<time>0001-01-01T00:00:00Z</time>
				</trkpt>
				<trkpt lat="58.25267" lon="7.18772">
					<ele>52</ele>
					<time>0001-01-01T00:00:00Z</time>
				</trkpt>
				<trkpt lat="58.25484" lon="7.18886">
					<ele>53</ele>
					<time>0001-01-01T00:00:00Z</time>
				</trkpt>
				<trkpt lat="58.25614" lon="7.18960">
					<ele>53</ele>
					<time>0001-01-01T00:00:00Z</time>
				</trkpt>
				<trkpt lat="58.25718" lon="7.19144">
					<ele>55</ele>
					<time>0001-01-01T00:00:00Z</time>
				</trkpt>
				<trkpt lat="58.25737" lon="7.19174">
					<ele>54</ele>
					<time>0001-01-01T00:00:00Z</time>
				</trkpt>
				<trkpt lat="58.25784" lon="7.19174">
					<ele>56</ele>
					<time>0001-01-01T00:00:00Z</time>
				</trkpt>
				<trkpt lat="58.25849" lon="7.19153">
					<ele>56</ele>
					<time>0001-01-01T00:00:00Z</time>
				</trkpt>
				<trkpt lat="58.25879" lon="7.19171">
					<ele>57</ele>
					<time>0001-01-01T00:00:00Z</time>
				</trkpt>
				<trkpt lat="58.25898" lon="7.19196">
					<ele>56</ele>
					<time>0001-01-01T00:00:00Z</time>
				</trkpt>
				<trkpt lat="58.25923" lon="7.19254">
					<ele>58</ele>
					<time>0001-01-01T00:00:00Z</time>
				</trkpt>
				<trkpt lat="58.25932" lon="7.19371">
					<ele>58</ele>
					<time>0001-01-01T00:00:00Z</time>
				</trkpt>
				<trkpt lat="58.25934" lon="7.19390">
					<ele>58</ele>
					<time>0001-01-01T00:00:00Z</time>
				</trkpt>
				<trkpt lat="58.25945" lon="7.19425">
					<ele>58</ele>
					<time>0001-01-01T00:00:00Z</time>
				</trkpt>
				<trkpt lat="58.25991" lon="7.19594">
					<ele>59</ele>
					<time>0001-01-01T00:00:00Z</time>
				</trkpt>
				<trkpt lat="58.26025" lon="7.19670">
					<ele>59</ele>
					<time>0001-01-01T00:00:00Z</time>
				</trkpt>
				<trkpt lat="58.26058" lon="7.19718">
					<ele>58</ele>
					<time>0001-01-01T00:00:00Z</time>
				</trkpt>
				<trkpt lat="58.26223" lon="7.19836">
					<ele>58</ele>
					<time>0001-01-01T00:00:00Z</time>
				</trkpt>
				<trkpt lat="58.26380" lon="7.19900">
					<ele>59</ele>
					<time>0001-01-01T00:00:00Z</time>
				</trkpt>
				<trkpt lat="58.26419" lon="7.19887">
					<ele>61</ele>
					<time>0001-01-01T00:00:00Z</time>
				</trkpt>
				<trkpt lat="58.26461" lon="7.19822">
					<ele>64</ele>
					<time>0001-01-01T00:00:00Z</time>
				</trkpt>
				<trkpt lat="58.26471" lon="7.19791">
					<ele>64</ele>
					<time>0001-01-01T00:00:00Z</time>
				</trkpt>
				<trkpt lat="58.26485" lon="7.19696">
					<ele>62</ele>
					<time>0001-01-01T00:00:00Z</time>
				</trkpt>
				<trkpt lat="58.26472" lon="7.19509">
					<ele>61</ele>
					<time>0001-01-01T00:00:00Z</time>
				</trkpt>
				<trkpt lat="58.26464" lon="7.19347">
					<ele>63</ele>
					<time>0001-01-01T00:00:00Z</time>
				</trkpt>
				<trkpt lat="58.26458" lon="7.19126">
					<ele>69</ele>
					<time>0001-01-01T00:00:00Z</time>
				</trkpt>
				<trkpt lat="58.26470" lon="7.19055">
					<ele>70</ele>
					<time>0001-01-01T00:00:00Z</time>
				</trkpt>
				<trkpt lat="58.26477" lon="7.19038">
					<ele>70</ele>
					<time>0001-01-01T00:00:00Z</time>
				</trkpt>
				<trkpt lat="58.26532" lon="7.18976">
					<ele>71</ele>
					<time>0001-01-01T00:00:00Z</time>
				</trkpt>
				<trkpt lat="58.26622" lon="7.18966">
					<ele>83</ele>
					<time>0001-01-01T00:00:00Z</time>
				</trkpt>
				<trkpt lat="58.26727" lon="7.18912">
					<ele>90</ele>
					<time>0001-01-01T00:00:00Z</time>
				</trkpt>
				<trkpt lat="58.26850" lon="7.19026">
					<ele>96</ele>
					<time>0001-01-01T00:00:00Z</time>
				</trkpt>
				<trkpt lat="58.26991" lon="7.19097">
					<ele>98</ele>
					<time>0001-01-01T00:00:00Z</time>
				</trkpt>
				<trkpt lat="58.27032" lon="7.19119">
					<ele>97</ele>
					<time>0001-01-01T00:00:00Z</time>
				</trkpt>
				<trkpt lat="58.27080" lon="7.19187">
					<ele>96</ele>
					<time>0001-01-01T00:00:00Z</time>
				</trkpt>
				<trkpt lat="58.27160" lon="7.19205">
					<ele>96</ele>
					<time>0001-01-01T00:00:00Z</time>
				</trkpt>
				<trkpt lat="58.27170" lon="7.19199">
					<ele>97</ele>
					<time>0001-01-01T00:00:00Z</time>
				</trkpt>
				<trkpt lat="58.27248" lon="7.19135">
					<ele>98</ele>
					<time>0001-01-01T00:00:00Z</time>
				</trkpt>
				<trkpt lat="58.27364" lon="7.19191">
					<ele>100</ele>
					<time>0001-01-01T00:00:00Z</time>
				</trkpt>
				<trkpt lat="58.27380" lon="7.19200">
					<ele>100</ele>
					<time>0001-01-01T00:00:00Z</time>
				</trkpt>
				<trkpt lat="58.27539" lon="7.19316">
					<ele>97</ele>
					<time>0001-01-01T00:00:00Z</time>
				</trkpt>
				<trkpt lat="58.27598" lon="7.19323">
					<ele>98</ele>
					<time>0001-01-01T00:00:00Z</time>
				</trkpt>
				<trkpt lat="58.27757" lon="7.19234">
					<ele>100</ele>
					<time>0001-01-01T00:00:00Z</time>
				</trkpt>
				<trkpt lat="58.27940" lon="7.19219">
					<ele>100</ele>
					<time>0001-01-01T00:00:00Z</time>
				</trkpt>
				<trkpt lat="58.28174" lon="7.19316">
					<ele>102</ele>
					<time>0001-01-01T00:00:00Z</time>
				</trkpt>
				<trkpt lat="58.28387" lon="7.19406">
					<ele>102</ele>
					<time>0001-01-01T00:00:00Z</time>
				</trkpt>
				<trkpt lat="58.28559" lon="7.19538">
					<ele>104</ele>
					<time>0001-01-01T00:00:00Z</time>
				</trkpt>
				<trkpt lat="58.28654" lon="7.19725">
					<ele>104</ele>
					<time>0001-01-01T00:00:00Z</time>
				</trkpt>
				<trkpt lat="58.28736" lon="7.19867">
					<ele>105</ele>
					<time>0001-01-01T00:00:00Z</time>
				</trkpt>
				<trkpt lat="58.28933" lon="7.19986">
					<ele>101</ele>
					<time>0001-01-01T00:00:00Z</time>
				</trkpt>
				<trkpt lat="58.28951" lon="7.19995">
					<ele>101</ele>
					<time>0001-01-01T00:00:00Z</time>
				</trkpt>
				<trkpt lat="58.28989" lon="7.19964">
					<ele>102</ele>
					<time>0001-01-01T00:00:00Z</time>
				</trkpt>
				<trkpt lat="58.29118" lon="7.19700">
					<ele>105</ele>
					<time>0001-01-01T00:00:00Z</time>
				</trkpt>
				<trkpt lat="58.29240" lon="7.19516">
					<ele>104</ele>
					<time>0001-01-01T00:00:00Z</time>
				</trkpt>
				<trkpt lat="58.29316" lon="7.19513">
					<ele>105</ele>
					<time>0001-01-01T00:00:00Z</time>
				</trkpt>
				<trkpt lat="58.29433" lon="7.19620">
					<ele>106</ele>
					<time>0001-01-01T00:00:00Z</time>
				</trkpt>
				<trkpt lat="58.29500" lon="7.19888">
					<ele>107</ele>
					<time>0001-01-01T00:00:00Z</time>
				</trkpt>
				<trkpt lat="58.29562" lon="7.20194">
					<ele>107</ele>
					<time>0001-01-01T00:00:00Z</time>
				</trkpt>
				<trkpt lat="58.29640" lon="7.20328">
					<ele>109</ele>
					<time>0001-01-01T00:00:00Z</time>
				</trkpt>
				<trkpt lat="58.30012" lon="7.20715">
					<ele>109</ele>
					<time>0001-01-01T00:00:00Z</time>
				</trkpt>
				<trkpt lat="58.30143" lon="7.20822">
					<ele>113</ele>
					<time>0001-01-01T00:00:00Z</time>
				</trkpt>
				<trkpt lat="58.30213" lon="7.20789">
					<ele>117</ele>
					<time>0001-01-01T00:00:00Z</time>
				</trkpt>
				<trkpt lat="58.30323" lon="7.20863">
					<ele>124</ele>
					<time>0001-01-01T00:00:00Z</time>
				</trkpt>
				<trkpt lat="58.30458" lon="7.21087">
					<ele>130</ele>
					<time>0001-01-01T00:00:00Z</time>
				</trkpt>
				<trkpt lat="58.30578" lon="7.21230">
					<ele>132</ele>
					<time>0001-01-01T00:00:00Z</time>
				</trkpt>
				<trkpt lat="58.30757" lon="7.21310">
					<ele>133</ele>
					<time>0001-01-01T00:00:00Z</time>
				</trkpt>
				<trkpt lat="58.30908" lon="7.21400">
					<ele>134</ele>
					<time>0001-01-01T00:00:00Z</time>
				</trkpt>
				<trkpt lat="58.30951" lon="7.21465">
					<ele>135</ele>
					<time>0001-01-01T00:00:00Z</time>
				</trkpt>
				<trkpt lat="58.30993" lon="7.21500">
					<ele>136</ele>
					<time>0001-01-01T00:00:00Z</time>
				</trkpt>
				<trkpt lat="58.31030" lon="7.21510">
					<ele>136</ele>
					<time>0001-01-01T00:00:00Z</time>
				</trkpt>
				<trkpt lat="58.31078" lon="7.21570">
					<ele>137</ele>
					<time>0001-01-01T00:00:00Z</time>
				</trkpt>
				<trkpt lat="58.31207" lon="7.21817">
					<ele>137</ele>
					<time>0001-01-01T00:00:00Z</time>
				</trkpt>
				<trkpt lat="58.31273" lon="7.21777">
					<ele>138</ele>
					<time>0001-01-01T00:00:00Z</time>
				</trkpt>
				<trkpt lat="58.31331" lon="7.21607">
					<ele>139</ele>
					<time>0001-01-01T00:00:00Z</time>
				</trkpt>
				<trkpt lat="58.31353" lon="7.21557">
					<ele>139</ele>
					<time>0001-01-01T00:00:00Z</time>
				</trkpt>
				<trkpt lat="58.31366" lon="7.21537">
					<ele>139</ele>
					<time>0001-01-01T00:00:00Z</time>
				</trkpt>
				<trkpt lat="58.31415" lon="7.21486">
					<ele>140</ele>
					<time>0001-01-01T00:00:00Z</time>
				</trkpt>
				<trkpt lat="58.31476" lon="7.21468">
					<ele>144</ele>
					<time>0001-01-01T00:00:00Z</time>
				</trkpt>
				<trkpt lat="58.31633" lon="7.21484">
					<ele>147</ele>
					<time>0001-01-01T00:00:00Z</time>
				</trkpt>
				<trkpt lat="58.31814" lon="7.21506">
					<ele>150</ele>
					<time>0001-01-01T00:00:00Z</time>
				</trkpt>
				<trkpt lat="58.31969" lon="7.21498">
					<ele>155</ele>
					<time>0001-01-01T00:00:00Z</time>
				</trkpt>
				<trkpt lat="58.32063" lon="7.21376">
					<ele>154</ele>
					<time>0001-01-01T00:00:00Z</time>
				</trkpt>
				<trkpt lat="58.32191" lon="7.21209">
					<ele>151</ele>
					<time>0001-01-01T00:00:00Z</time>
				</trkpt>
				<trkpt lat="58.32314" lon="7.21177">
					<ele>153</ele>
					<time>0001-01-01T00:00:00Z</time>
				</trkpt>
				<trkpt lat="58.32447" lon="7.21241">
					<ele>151</ele>
					<time>0001-01-01T00:00:00Z</time>
				</trkpt>
				<trkpt lat="58.32638" lon="7.21370">
					<ele>145</ele>
					<time>0001-01-01T00:00:00Z</time>
				</trkpt>
				<trkpt lat="58.32658" lon="7.21372">
					<ele>145</ele>
					<time>0001-01-01T00:00:00Z</time>
				</trkpt>
				<trkpt lat="58.32719" lon="7.21469">
					<ele>144</ele>
					<time>0001-01-01T00:00:00Z</time>
				</trkpt>
				<trkpt lat="58.32735" lon="7.21520">
					<ele>143</ele>
					<time>0001-01-01T00:00:00Z</time>
				</trkpt>
				<trkpt lat="58.32801" lon="7.21536">
					<ele>143</ele>
					<time>0001-01-01T00:00:00Z</time>
				</trkpt>
				<trkpt lat="58.32811" lon="7.21526">
					<ele>143</ele>
					<time>0001-01-01T00:00:00Z</time>
				</trkpt>
				<trkpt lat="58.32857" lon="7.21483">
					<ele>144</ele>
					<time>0001-01-01T00:00:00Z</time>
				</trkpt>
				<trkpt lat="58.32988" lon="7.21379">
					<ele>146</ele>
					<time>0001-01-01T00:00:00Z</time>
				</trkpt>
				<trkpt lat="58.33016" lon="7.21301">
					<ele>146</ele>
					<time>0001-01-01T00:00:00Z</time>
				</trkpt>
				<trkpt lat="58.33034" lon="7.21060">
					<ele>148</ele>
					<time>0001-01-01T00:00:00Z</time>
				</trkpt>
				<trkpt lat="58.33059" lon="7.20893">
					<ele>147</ele>
					<time>0001-01-01T00:00:00Z</time>
				</trkpt>
				<trkpt lat="58.33112" lon="7.20823">
					<ele>147</ele>
					<time>0001-01-01T00:00:00Z</time>
				</trkpt>
				<trkpt lat="58.33139" lon="7.20810">
					<ele>147</ele>
					<time>0001-01-01T00:00:00Z</time>
				</trkpt>
				<trkpt lat="58.33339" lon="7.20780">
					<ele>148</ele>
					<time>0001-01-01T00:00:00Z</time>
				</trkpt>
				<trkpt lat="58.33548" lon="7.20714">
					<ele>148</ele>
					<time>0001-01-01T00:00:00Z</time>
				</trkpt>
				<trkpt lat="58.33746" lon="7.20682">
					<ele>148</ele>
					<time>0001-01-01T00:00:00Z</time>
				</trkpt>
				<trkpt lat="58.33974" lon="7.20647">
					<ele>151</ele>
					<time>0001-01-01T00:00:00Z</time>
				</trkpt>
				<trkpt lat="58.34210" lon="7.20659">
					<ele>151</ele>
					<time>0001-01-01T00:00:00Z</time>
				</trkpt>
				<trkpt lat="58.34329" lon="7.20774">
					<ele>149</ele>
					<time>0001-01-01T00:00:00Z</time>
				</trkpt>
				<trkpt lat="58.34484" lon="7.20990">
					<ele>151</ele>
					<time>0001-01-01T00:00:00Z</time>
				</trkpt>
				<trkpt lat="58.34494" lon="7.21018">
					<ele>151</ele>
					<time>0001-01-01T00:00:00Z</time>
				</trkpt>
				<trkpt lat="58.34571" lon="7.21244">
					<ele>149</ele>
					<time>0001-01-01T00:00:00Z</time>
				</trkpt>
				<trkpt lat="58.34587" lon="7.21265">
					<ele>149</ele>
					<time>0001-01-01T00:00:00Z</time>
				</trkpt>
				<trkpt lat="58.34731" lon="7.21337">
					<ele>152</ele>
					<time>0001-01-01T00:00:00Z</time>
				</trkpt>
				<trkpt lat="58.34896" lon="7.21325">
					<ele>154</ele>
					<time>0001-01-01T00:00:00Z</time>
				</trkpt>
				<trkpt lat="58.35072" lon="7.21336">
					<ele>153</ele>
					<time>0001-01-01T00:00:00Z</time>
				</trkpt>
				<trkpt lat="58.35315" lon="7.21396">
					<ele>155</ele>
					<time>0001-01-01T00:00:00Z</time>
				</trkpt>
				<trkpt lat="58.35405" lon="7.21515">
					<ele>157</ele>
					<time>0001-01-01T00:00:00Z</time>
				</trkpt>
				<trkpt lat="58.35547" lon="7.21829">
					<ele>158</ele>
					<time>0001-01-01T00:00:00Z</time>
				</trkpt>
				<trkpt lat="58.35657" lon="7.21917">
					<ele>158</ele>
					<time>0001-01-01T00:00:00Z</time>
				</trkpt>
				<trkpt lat="58.35877" lon="7.21968">
					<ele>157</ele>
					<time>0001-01-01T00:00:00Z</time>
				</trkpt>
				<trkpt lat="58.36115" lon="7.22016">
					<ele>160</ele>
					<time>0001-01-01T00:00:00Z</time>
				</trkpt>
				<trkpt lat="58.36276" lon="7.22051">
					<ele>160</ele>
					<time>0001-01-01T00:00:00Z</time>
				</trkpt>
				<trkpt lat="58.36439" lon="7.22086">
					<ele>166</ele>
					<time>0001-01-01T00:00:00Z</time>
				</trkpt>
				<trkpt lat="58.36567" lon="7.22110">
					<ele>168</ele>
					<time>0001-01-01T00:00:00Z</time>
				</trkpt>
				<trkpt lat="58.36712" lon="7.22118">
					<ele>163</ele>
					<time>0001-01-01T00:00:00Z</time>
				</trkpt>
				<trkpt lat="58.36840" lon="7.22018">
					<ele>162</ele>
					<time>0001-01-01T00:00:00Z</time>
				</trkpt>
				<trkpt lat="58.36953" lon="7.22031">
					<ele>163</ele>
					<time>0001-01-01T00:00:00Z</time>
				</trkpt>
				<trkpt lat="58.37055" lon="7.22106">
					<ele>165</ele>
					<time>0001-01-01T00:00:00Z</time>
				</trkpt>
				<trkpt lat="58.37197" lon="7.22126">
					<ele>166</ele>
					<time>0001-01-01T00:00:00Z</time>
				</trkpt>
				<trkpt lat="58.37419" lon="7.22151">
					<ele>168</ele>
					<time>0001-01-01T00:00:00Z</time>
				</trkpt>
				<trkpt lat="58.37613" lon="7.22214">
					<ele>170</ele>
					<time>0001-01-01T00:00:00Z</time>
				</trkpt>
				<trkpt lat="58.37797" lon="7.22255">
					<ele>170</ele>
					<time>0001-01-01T00:00:00Z</time>
				</trkpt>
				<trkpt lat="58.37933" lon="7.22245">
					<ele>171</ele>
					<time>0001-01-01T00:00:00Z</time>
				</trkpt>
				<trkpt lat="58.38111" lon="7.22380">
					<ele>171</ele>
					<time>0001-01-01T00:00:00Z</time>
				</trkpt>
				<trkpt lat="58.38257" lon="7.22622">
					<ele>171</ele>
					<time>0001-01-01T00:00:00Z</time>
				</trkpt>
				<trkpt lat="58.38384" lon="7.22820">
					<ele>171</ele>
					<time>0001-01-01T00:00:00Z</time>
				</trkpt>
				<trkpt lat="58.38520" lon="7.23101">
					<ele>172</ele>
					<time>0001-01-01T00:00:00Z</time>
				</trkpt>
				<trkpt lat="58.38579" lon="7.23189">
					<ele>173</ele>
					<time>0001-01-01T00:00:00Z</time>
				</trkpt>
				<trkpt lat="58.38713" lon="7.23281">
					<ele>173</ele>
					<time>0001-01-01T00:00:00Z</time>
				</trkpt>
				<trkpt lat="58.38879" lon="7.23434">
					<ele>175</ele>
					<time>0001-01-01T00:00:00Z</time>
				</trkpt>
				<trkpt lat="58.39006" lon="7.23479">
					<ele>179</ele>
					<time>0001-01-01T00:00:00Z</time>
				</trkpt>
				<trkpt lat="58.39113" lon="7.23491">
					<ele>181</ele>
					<time>0001-01-01T00:00:00Z</time>
				</trkpt>
				<trkpt lat="58.39133" lon="7.23471">
					<ele>181</ele>
					<time>0001-01-01T00:00:00Z</time>
				</trkpt>
				<trkpt lat="58.39167" lon="7.23396">
					<ele>184</ele>
					<time>0001-01-01T00:00:00Z</time>
				</trkpt>
				<trkpt lat="58.39188" lon="7.23285">
					<ele>186</ele>
					<time>0001-01-01T00:00:00Z</time>
				</trkpt>
				<trkpt lat="58.39189" lon="7.23245">
					<ele>187</ele>
					<time>0001-01-01T00:00:00Z</time>
				</trkpt>
				<trkpt lat="58.39173" lon="7.23163">
					<ele>188</ele>
					<time>0001-01-01T00:00:00Z</time>
				</trkpt>
				<trkpt lat="58.39209" lon="7.23066">
					<ele>190</ele>
					<time>0001-01-01T00:00:00Z</time>
				</trkpt>
				<trkpt lat="58.39215" lon="7.23061">
					<ele>190</ele>
					<time>0001-01-01T00:00:00Z</time>
				</trkpt>
				<trkpt lat="58.39345" lon="7.22996">
					<ele>190</ele>
					<time>0001-01-01T00:00:00Z</time>
				</trkpt>
				<trkpt lat="58.39501" lon="7.22909">
					<ele>196</ele>
					<time>0001-01-01T00:00:00Z</time>
				</trkpt>
				<trkpt lat="58.39616" lon="7.22742">
					<ele>196</ele>
					<time>0001-01-01T00:00:00Z</time>
				</trkpt>
				<trkpt lat="58.39782" lon="7.22559">
					<ele>190</ele>
					<time>0001-01-01T00:00:00Z</time>
				</trkpt>
				<trkpt lat="58.39951" lon="7.22455">
					<ele>188</ele>
					<time>0001-01-01T00:00:00Z</time>
				</trkpt>
				<trkpt lat="58.40093" lon="7.22372">
					<ele>189</ele>
					<time>0001-01-01T00:00:00Z</time>
				</trkpt>
				<trkpt lat="58.40142" lon="7.22394">
					<ele>188</ele>
					<time>0001-01-01T00:00:00Z</time>
				</trkpt>
				<trkpt lat="58.40191" lon="7.22456">
					<ele>186</ele>
					<time>0001-01-01T00:00:00Z</time>
				</trkpt>
				<trkpt lat="58.40239" lon="7.22473">
					<ele>186</ele>
					<time>0001-01-01T00:00:00Z</time>
				</trkpt>
				<trkpt lat="58.40268" lon="7.22474">
					<ele>186</ele>
					<time>0001-01-01T00:00:00Z</time>
				</trkpt>
				<trkpt lat="58.40312" lon="7.22533">
					<ele>184</ele>
					<time>0001-01-01T00:00:00Z</time>
				</trkpt>
				<trkpt lat="58.40424" lon="7.22729">
					<ele>184</ele>
					<time>0001-01-01T00:00:00Z</time>
				</trkpt>
				<trkpt lat="58.40497" lon="7.22809">
					<ele>184</ele>
					<time>0001-01-01T00:00:00Z</time>
				</trkpt>
				<trkpt lat="58.40732" lon="7.22895">
					<ele>183</ele>
					<time>0001-01-01T00:00:00Z</time>
				</trkpt>
				<trkpt lat="58.40748" lon="7.22900">
					<ele>183</ele>
					<time>0001-01-01T00:00:00Z</time>
				</trkpt>
				<trkpt lat="58.40885" lon="7.23039">
					<ele>185</ele>
					<time>0001-01-01T00:00:00Z</time>
				</trkpt>
				<trkpt lat="58.40894" lon="7.23045">
					<ele>185</ele>
					<time>0001-01-01T00:00:00Z</time>
				</trkpt>
				<trkpt lat="58.41138" lon="7.23259">
					<ele>184</ele>
					<time>0001-01-01T00:00:00Z</time>
				</trkpt>
				<trkpt lat="58.41353" lon="7.23478">
					<ele>183</ele>
					<time>0001-01-01T00:00:00Z</time>
				</trkpt>
				<trkpt lat="58.41498" lon="7.23672">
					<ele>181</ele>
					<time>0001-01-01T00:00:00Z</time>
				</trkpt>
				<trkpt lat="58.41530" lon="7.23716">
					<ele>182</ele>
					<time>0001-01-01T00:00:00Z</time>
				</trkpt>
				<trkpt lat="58.41672" lon="7.23797">
					<ele>180</ele>
					<time>0001-01-01T00:00:00Z</time>
				</trkpt>
				<trkpt lat="58.41819" lon="7.23819">
					<ele>180</ele>
					<time>0001-01-01T00:00:00Z</time>
				</trkpt>
				<trkpt lat="58.41839" lon="7.23818">
					<ele>180</ele>
					<time>0001-01-01T00:00:00Z</time>
				</trkpt>
				<trkpt lat="58.41933" lon="7.23749">
					<ele>179</ele>
					<time>0001-01-01T00:00:00Z</time>
				</trkpt>
				<trkpt lat="58.41968" lon="7.23643">
					<ele>180</ele>
					<time>0001-01-01T00:00:00Z</time>
				</trkpt>
				<trkpt lat="58.41975" lon="7.23552">
					<ele>181</ele>
					<time>0001-01-01T00:00:00Z</time>
				</trkpt>
				<trkpt lat="58.42100" lon="7.23353">
					<ele>184</ele>
					<time>0001-01-01T00:00:00Z</time>
				</trkpt>
				<trkpt lat="58.42202" lon="7.23377">
					<ele>185</ele>
					<time>0001-01-01T00:00:00Z</time>
				</trkpt>
				<trkpt lat="58.42318" lon="7.23385">
					<ele>184</ele>
					<time>0001-01-01T00:00:00Z</time>
				</trkpt>
				<trkpt lat="58.42369" lon="7.23296">
					<ele>186</ele>
					<time>0001-01-01T00:00:00Z</time>
				</trkpt>
				<trkpt lat="58.42392" lon="7.23189">
					<ele>188</ele>
					<time>0001-01-01T00:00:00Z</time>
				</trkpt>
				<trkpt lat="58.42411" lon="7.23157">
					<ele>189</ele>
					<time>0001-01-01T00:00:00Z</time>
				</trkpt>
				<trkpt lat="58.42410" lon="7.23164">
					<ele>194</ele>
					<time>0001-01-01T00:00:00Z</time>
				</trkpt>
				<trkpt lat="58.42419" lon="7.23155">
					<ele>191</ele>
					<time>0001-01-01T00:00:00Z</time>
				</trkpt>
				<trkpt lat="58.42436" lon="7.23129">
					<ele>192</ele>
					<time>0001-01-01T00:00:00Z</time>
				</trkpt>
				<trkpt lat="58.42489" lon="7.23122">
					<ele>190</ele>
					<time>0001-01-01T00:00:00Z</time>
				</trkpt>
				<trkpt lat="58.42566" lon="7.23197">
					<ele>188</ele>
					<time>0001-01-01T00:00:00Z</time>
				</trkpt>
				<trkpt lat="58.42615" lon="7.23294">
					<ele>187</ele>
					<time>0001-01-01T00:00:00Z</time>
				</trkpt>
				<trkpt lat="58.42628" lon="7.23324">
					<ele>186</ele>
					<time>0001-01-01T00:00:00Z</time>
				</trkpt>
				<trkpt lat="58.42645" lon="7.23349">
					<ele>185</ele>
					<time>0001-01-01T00:00:00Z</time>
				</trkpt>
				<trkpt lat="58.42714" lon="7.23352">
					<ele>185</ele>
					<time>0001-01-01T00:00:00Z</time>
				</trkpt>
				<trkpt lat="58.42727" lon="7.23347">
					<ele>186</ele>
					<time>0001-01-01T00:00:00Z</time>
				</trkpt>
				<trkpt lat="58.42801" lon="7.23395">
					<ele>186</ele>
					<time>0001-01-01T00:00:00Z</time>
				</trkpt>
				<trkpt lat="58.42849" lon="7.23388">
					<ele>186</ele>
					<time>0001-01-01T00:00:00Z</time>
				</trkpt>
				<trkpt lat="58.42900" lon="7.23328">
					<ele>187</ele>
					<time>0001-01-01T00:00:00Z</time>
				</trkpt>
				<trkpt lat="58.42978" lon="7.23348">
					<ele>188</ele>
					<time>0001-01-01T00:00:00Z</time>
				</trkpt>
				<trkpt lat="58.42985" lon="7.23357">
					<ele>188</ele>
					<time>0001-01-01T00:00:00Z</time>
				</trkpt>
				<trkpt lat="58.43153" lon="7.23603">
					<ele>185</ele>
					<time>0001-01-01T00:00:00Z</time>
				</trkpt>
				<trkpt lat="58.43290" lon="7.23705">
					<ele>183</ele>
					<time>0001-01-01T00:00:00Z</time>
				</trkpt>
				<trkpt lat="58.43357" lon="7.23712">
					<ele>184</ele>
					<time>0001-01-01T00:00:00Z</time>
				</trkpt>
				<trkpt lat="58.43436" lon="7.23613">
					<ele>185</ele>
					<time>0001-01-01T00:00:00Z</time>
				</trkpt>
				<trkpt lat="58.43461" lon="7.23554">
					<ele>186</ele>
					<time>0001-01-01T00:00:00Z</time>
				</trkpt>
				<trkpt lat="58.43517" lon="7.23556">
					<ele>186</ele>
					<time>0001-01-01T00:00:00Z</time>
				</trkpt>
				<trkpt lat="58.43646" lon="7.23720">
					<ele>186</ele>
					<time>0001-01-01T00:00:00Z</time>
				</trkpt>
				<trkpt lat="58.43661" lon="7.23740">
					<ele>186</ele>
					<time>0001-01-01T00:00:00Z</time>
				</trkpt>
				<trkpt lat="58.43695" lon="7.23767">
					<ele>186</ele>
					<time>0001-01-01T00:00:00Z</time>
				</trkpt>
				<trkpt lat="58.43743" lon="7.23754">
					<ele>185</ele>
					<time>0001-01-01T00:00:00Z</time>
				</trkpt>
				<trkpt lat="58.43768" lon="7.23727">
					<ele>186</ele>
					<time>0001-01-01T00:00:00Z</time>
				</trkpt>
				<trkpt lat="58.43854" lon="7.23746">
					<ele>185</ele>
					<time>0001-01-01T00:00:00Z</time>
				</trkpt>
				<trkpt lat="58.44010" lon="7.23973">
					<ele>185</ele>
					<time>0001-01-01T00:00:00Z</time>
				</trkpt>
				<trkpt lat="58.44137" lon="7.24097">
					<ele>187</ele>
					<time>0001-01-01T00:00:00Z</time>
				</trkpt>
				<trkpt lat="58.44262" lon="7.24146">
					<ele>187</ele>
					<time>0001-01-01T00:00:00Z</time>
				</trkpt>
				<trkpt lat="58.44305" lon="7.24206">
					<ele>187</ele>
					<time>0001-01-01T00:00:00Z</time>
				</trkpt>
				<trkpt lat="58.44409" lon="7.24438">
					<ele>186</ele>
					<time>0001-01-01T00:00:00Z</time>
				</trkpt>
				<trkpt lat="58.44531" lon="7.24504">
					<ele>184</ele>
					<time>0001-01-01T00:00:00Z</time>
				</trkpt>
				<trkpt lat="58.44599" lon="7.24554">
					<ele>186</ele>
					<time>0001-01-01T00:00:00Z</time>
				</trkpt>
				<trkpt lat="58.44712" lon="7.24698">
					<ele>187</ele>
					<time>0001-01-01T00:00:00Z</time>
				</trkpt>
				<trkpt lat="58.44785" lon="7.24664">
					<ele>186</ele>
					<time>0001-01-01T00:00:00Z</time>
				</trkpt>
				<trkpt lat="58.44816" lon="7.24593">
					<ele>187</ele>
					<time>0001-01-01T00:00:00Z</time>
				</trkpt>
				<trkpt lat="58.44848" lon="7.24555">
					<ele>187</ele>
					<time>0001-01-01T00:00:00Z</time>
				</trkpt>
				<trkpt lat="58.45069" lon="7.24351">
					<ele>189</ele>
					<time>0001-01-01T00:00:00Z</time>
				</trkpt>
				<trkpt lat="58.45190" lon="7.24144">
					<ele>189</ele>
					<time>0001-01-01T00:00:00Z</time>
				</trkpt>
				<trkpt lat="58.45196" lon="7.24131">
					<ele>190</ele>
					<time>0001-01-01T00:00:00Z</time>
				</trkpt>
				<trkpt lat="58.45225" lon="7.24097">
					<ele>191</ele>
					<time>0001-01-01T00:00:00Z</time>
				</trkpt>
				<trkpt lat="58.45241" lon="7.24086">
					<ele>191</ele>
					<time>0001-01-01T00:00:00Z</time>
				</trkpt>
				<trkpt lat="58.45275" lon="7.24086">
					<ele>191</ele>
					<time>0001-01-01T00:00:00Z</time>
				</trkpt>
				<trkpt lat="58.45436" lon="7.24124">
					<ele>196</ele>
					<time>0001-01-01T00:00:00Z</time>
				</trkpt>
				<trkpt lat="58.45442" lon="7.24124">
					<ele>196</ele>
					<time>0001-01-01T00:00:00Z</time>
				</trkpt>
				<trkpt lat="58.45457" lon="7.24118">
					<ele>196</ele>
					<time>0001-01-01T00:00:00Z</time>
				</trkpt>
				<trkpt lat="58.45474" lon="7.24099">
					<ele>198</ele>
					<time>0001-01-01T00:00:00Z</time>
				</trkpt>
				<trkpt lat="58.45535" lon="7.23983">
					<ele>204</ele>
					<time>0001-01-01T00:00:00Z</time>
				</trkpt>
				<trkpt lat="58.45544" lon="7.23934">
					<ele>203</ele>
					<time>0001-01-01T00:00:00Z</time>
				</trkpt>
				<trkpt lat="58.45559" lon="7.23772">
					<ele>203</ele>
					<time>0001-01-01T00:00:00Z</time>
				</trkpt>
				<trkpt lat="58.45566" lon="7.23744">
					<ele>203</ele>
					<time>0001-01-01T00:00:00Z</time>
				</trkpt>
				<trkpt lat="58.45590" lon="7.23693">
					<ele>203</ele>
					<time>0001-01-01T00:00:00Z</time>
				</trkpt>
				<trkpt lat="58.45749" lon="7.23510">
					<ele>204</ele>
					<time>0001-01-01T00:00:00Z</time>
				</trkpt>
				<trkpt lat="58.45911" lon="7.23398">
					<ele>205</ele>
					<time>0001-01-01T00:00:00Z</time>
				</trkpt>
				<trkpt lat="58.46012" lon="7.23247">
					<ele>197</ele>
					<time>0001-01-01T00:00:00Z</time>
				</trkpt>
				<trkpt lat="58.46124" lon="7.23157">
					<ele>194</ele>
					<time>0001-01-01T00:00:00Z</time>
				</trkpt>
				<trkpt lat="58.46172" lon="7.23164">
					<ele>194</ele>
					<time>0001-01-01T00:00:00Z</time>
				</trkpt>
				<trkpt lat="58.46361" lon="7.23211">
					<ele>195</ele>
					<time>0001-01-01T00:00:00Z</time>
				</trkpt>
				<trkpt lat="58.46493" lon="7.23123">
					<ele>195</ele>
					<time>0001-01-01T00:00:00Z</time>
				</trkpt>
				<trkpt lat="58.46602" lon="7.23029">
					<ele>192</ele>
					<time>0001-01-01T00:00:00Z</time>
				</trkpt>
				<trkpt lat="58.46629" lon="7.22968">
					<ele>192</ele>
					<time>0001-01-01T00:00:00Z</time>
				</trkpt>
				<trkpt lat="58.46647" lon="7.22921">
					<ele>192</ele>
					<time>0001-01-01T00:00:00Z</time>
				</trkpt>
				<trkpt lat="58.46762" lon="7.22791">
					<ele>192</ele>
					<time>0001-01-01T00:00:00Z</time>
				</trkpt>
				<trkpt lat="58.46908" lon="7.22733">
					<ele>191</ele>
					<time>0001-01-01T00:00:00Z</time>
				</trkpt>
				<trkpt lat="58.47030" lon="7.22659">
					<ele>194</ele>
					<time>0001-01-01T00:00:00Z</time>
				</trkpt>
				<trkpt lat="58.47216" lon="7.22540">
					<ele>195</ele>
					<time>0001-01-01T00:00:00Z</time>
				</trkpt>
				<trkpt lat="58.47403" lon="7.22443">
					<ele>195</ele>
					<time>0001-01-01T00:00:00Z</time>
				</trkpt>
				<trkpt lat="58.47520" lon="7.22290">
					<ele>190</ele>
					<time>0001-01-01T00:00:00Z</time>
				</trkpt>
				<trkpt lat="58.47634" lon="7.22060">
					<ele>189</ele>
					<time>0001-01-01T00:00:00Z</time>
				</trkpt>
				<trkpt lat="58.47723" lon="7.21638">
					<ele>189</ele>
					<time>0001-01-01T00:00:00Z</time>
				</trkpt>
				<trkpt lat="58.47731" lon="7.21333">
					<ele>188</ele>
					<time>0001-01-01T00:00:00Z</time>
				</trkpt>
				<trkpt lat="58.47732" lon="7.21312">
					<ele>188</ele>
					<time>0001-01-01T00:00:00Z</time>
				</trkpt>
				<trkpt lat="58.47790" lon="7.21056">
					<ele>189</ele>
					<time>0001-01-01T00:00:00Z</time>
				</trkpt>
				<trkpt lat="58.47859" lon="7.20879">
					<ele>189</ele>
					<time>0001-01-01T00:00:00Z</time>
				</trkpt>
				<trkpt lat="58.47980" lon="7.20750">
					<ele>188</ele>
					<time>0001-01-01T00:00:00Z</time>
				</trkpt>
				<trkpt lat="58.48065" lon="7.20596">
					<ele>187</ele>
					<time>0001-01-01T00:00:00Z</time>
				</trkpt>
				<trkpt lat="58.48157" lon="7.20507">
					<ele>187</ele>
					<time>0001-01-01T00:00:00Z</time>
				</trkpt>
				<trkpt lat="58.48175" lon="7.20496">
					<ele>187</ele>
					<time>0001-01-01T00:00:00Z</time>
				</trkpt>
				<trkpt lat="58.48220" lon="7.20426">
					<ele>187</ele>
					<time>0001-01-01T00:00:00Z</time>
				</trkpt>
				<trkpt lat="58.48340" lon="7.20182">
					<ele>188</ele>
					<time>0001-01-01T00:00:00Z</time>
				</trkpt>
				<trkpt lat="58.48497" lon="7.19998">
					<ele>187</ele>
					<time>0001-01-01T00:00:00Z</time>
				</trkpt>
				<trkpt lat="58.48594" lon="7.19732">
					<ele>189</ele>
					<time>0001-01-01T00:00:00Z</time>
				</trkpt>
				<trkpt lat="58.48622" lon="7.19525">
					<ele>191</ele>
					<time>0001-01-01T00:00:00Z</time>
				</trkpt>
				<trkpt lat="58.48698" lon="7.19374">
					<ele>190</ele>
					<time>0001-01-01T00:00:00Z</time>
				</trkpt>
				<trkpt lat="58.48786" lon="7.19192">
					<ele>189</ele>
					<time>0001-01-01T00:00:00Z</time>
				</trkpt>
				<trkpt lat="58.48892" lon="7.19045">
					<ele>189</ele>
					<time>0001-01-01T00:00:00Z</time>
				</trkpt>
				<trkpt lat="58.49087" lon="7.18775">
					<ele>189</ele>
					<time>0001-01-01T00:00:00Z</time>
				</trkpt>
				<trkpt lat="58.49164" lon="7.18582">
					<ele>188</ele>
					<time>0001-01-01T00:00:00Z</time>
				</trkpt>
				<trkpt lat="58.49170" lon="7.18570">
					<ele>188</ele>
					<time>0001-01-01T00:00:00Z</time>
				</trkpt>
				<trkpt lat="58.49272" lon="7.18393">
					<ele>188</ele>
					<time>0001-01-01T00:00:00Z</time>
				</trkpt>
				<trkpt lat="58.49308" lon="7.18255">
					<ele>188</ele>
					<time>0001-01-01T00:00:00Z</time>
				</trkpt>
				<trkpt lat="58.49347" lon="7.18180">
					<ele>188</ele>
					<time>0001-01-01T00:00:00Z</time>
				</trkpt>
				<trkpt lat="58.49500" lon="7.17958">
					<ele>189</ele>
					<time>0001-01-01T00:00:00Z</time>
				</trkpt>
				<trkpt lat="58.49619" lon="7.17768">
					<ele>195</ele>
					<time>0001-01-01T00:00:00Z</time>
				</trkpt>
				<trkpt lat="58.49714" lon="7.17578">
					<ele>197</ele>
					<time>0001-01-01T00:00:00Z</time>
				</trkpt>
				<trkpt lat="58.49789" lon="7.17381">
					<ele>200</ele>
					<time>0001-01-01T00:00:00Z</time>
				</trkpt>
				<trkpt lat="58.49810" lon="7.17321">
					<ele>201</ele>
					<time>0001-01-01T00:00:00Z</time>
				</trkpt>
				<trkpt lat="58.49818" lon="7.17276">
					<ele>202</ele>
					<time>0001-01-01T00:00:00Z</time>
				</trkpt>
				<trkpt lat="58.49821" lon="7.17252">
					<ele>202</ele>
					<time>0001-01-01T00:00:00Z</time>
				</trkpt>
				<trkpt lat="58.49815" lon="7.17178">
					<ele>203</ele>
					<time>0001-01-01T00:00:00Z</time>
				</trkpt>
				<trkpt lat="58.49772" lon="7.17046">
					<ele>205</ele>
					<time>0001-01-01T00:00:00Z</time>
				</trkpt>
				<trkpt lat="58.49740" lon="7.16907">
					<ele>208</ele>
					<time>0001-01-01T00:00:00Z</time>
				</trkpt>
				<trkpt lat="58.49717" lon="7.16723">
					<ele>212</ele>
					<time>0001-01-01T00:00:00Z</time>
				</trkpt>
				<trkpt lat="58.49682" lon="7.16465">
					<ele>216</ele>
					<time>0001-01-01T00:00:00Z</time>
				</trkpt>
				<trkpt lat="58.49634" lon="7.16173">
					<ele>220</ele>
					<time>0001-01-01T00:00:00Z</time>
				</trkpt>
				<trkpt lat="58.49642" lon="7.15995">
					<ele>222</ele>
					<time>0001-01-01T00:00:00Z</time>
				</trkpt>
				<trkpt lat="58.49712" lon="7.15775">
					<ele>225</ele>
					<time>0001-01-01T00:00:00Z</time>
				</trkpt>
				<trkpt lat="58.49741" lon="7.15709">
					<ele>226</ele>
					<time>0001-01-01T00:00:00Z</time>
				</trkpt>
				<trkpt lat="58.49841" lon="7.15624">
					<ele>234</ele>
					<time>0001-01-01T00:00:00Z</time>
				</trkpt>
				<trkpt lat="58.49877" lon="7.15550">
					<ele>236</ele>
					<time>0001-01-01T00:00:00Z</time>
				</trkpt>
				<trkpt lat="58.49921" lon="7.15311">
					<ele>240</ele>
					<time>0001-01-01T00:00:00Z</time>
				</trkpt>
				<trkpt lat="58.49941" lon="7.15184">
					<ele>243</ele>
					<time>0001-01-01T00:00:00Z</time>
				</trkpt>
				<trkpt lat="58.49959" lon="7.14995">
					<ele>247</ele>
					<time>0001-01-01T00:00:00Z</time>
				</trkpt>
				<trkpt lat="58.49967" lon="7.14907">
					<ele>248</ele>
					<time>0001-01-01T00:00:00Z</time>
				</trkpt>
				<trkpt lat="58.49972" lon="7.14889">
					<ele>248</ele>
					<time>0001-01-01T00:00:00Z</time>
				</trkpt>
				<trkpt lat="58.50059" lon="7.14670">
					<ele>251</ele>
					<time>0001-01-01T00:00:00Z</time>
				</trkpt>
				<trkpt lat="58.50170" lon="7.14387">
					<ele>254</ele>
					<time>0001-01-01T00:00:00Z</time>
				</trkpt>
				<trkpt lat="58.50239" lon="7.14165">
					<ele>255</ele>
					<time>0001-01-01T00:00:00Z</time>
				</trkpt>
				<trkpt lat="58.50276" lon="7.13964">
					<ele>262</ele>
					<time>0001-01-01T00:00:00Z</time>
				</trkpt>
				<trkpt lat="58.50321" lon="7.13708">
					<ele>264</ele>
					<time>0001-01-01T00:00:00Z</time>
				</trkpt>
				<trkpt lat="58.50369" lon="7.13461">
					<ele>268</ele>
					<time>0001-01-01T00:00:00Z</time>
				</trkpt>
				<trkpt lat="58.50384" lon="7.13424">
					<ele>269</ele>
					<time>0001-01-01T00:00:00Z</time>
				</trkpt>
				<trkpt lat="58.50505" lon="7.13247">
					<ele>275</ele>
					<time>0001-01-01T00:00:00Z</time>
				</trkpt>
				<trkpt lat="58.50601" lon="7.13047">
					<ele>275</ele>
					<time>0001-01-01T00:00:00Z</time>
				</trkpt>
				<trkpt lat="58.50690" lon="7.12796">
					<ele>277</ele>
					<time>0001-01-01T00:00:00Z</time>
				</trkpt>
				<trkpt lat="58.50770" lon="7.12611">
					<ele>282</ele>
					<time>0001-01-01T00:00:00Z</time>
				</trkpt>
				<trkpt lat="58.50792" lon="7.12452">
					<ele>286</ele>
					<time>0001-01-01T00:00:00Z</time>
				</trkpt>
				<trkpt lat="58.50746" lon="7.12327">
					<ele>289</ele>
					<time>0001-01-01T00:00:00Z</time>
				</trkpt>
				<trkpt lat="58.50703" lon="7.12198">
					<ele>295</ele>
					<time>0001-01-01T00:00:00Z</time>
				</trkpt>
				<trkpt lat="58.50673" lon="7.12095">
					<ele>300</ele>
					<time>0001-01-01T00:00:00Z</time>
				</trkpt>
				<trkpt lat="58.50620" lon="7.12090">
					<ele>305</ele>
					<time>0001-01-01T00:00:00Z</time>
				</trkpt>
				<trkpt lat="58.50543" lon="7.12106">
					<ele>314</ele>
					<time>0001-01-01T00:00:00Z</time>
				</trkpt>
				<trkpt lat="58.50484" lon="7.12050">
					<ele>321</ele>
					<time>0001-01-01T00:00:00Z</time>
				</trkpt>
				<trkpt lat="58.50415" lon="7.12183">
					<ele>336</ele>
					<time>0001-01-01T00:00:00Z</time>
				</trkpt>
				<trkpt lat="58.50362" lon="7.12323">
					<ele>346</ele>
					<time>0001-01-01T00:00:00Z</time>
				</trkpt>
				<trkpt lat="58.50311" lon="7.12441">
					<ele>351</ele>
					<time>0001-01-01T00:00:00Z</time>
				</trkpt>
				<trkpt lat="58.50266" lon="7.12540">
					<ele>359</ele>
					<time>0001-01-01T00:00:00Z</time>
				</trkpt>
				<trkpt lat="58.50217" lon="7.12656">
					<ele>369</ele>
					<time>0001-01-01T00:00:00Z</time>
				</trkpt>
				<trkpt lat="58.50204" lon="7.12668">
					<ele>370</ele>
					<time>0001-01-01T00:00:00Z</time>
				</trkpt>
				<trkpt lat="58.50205" lon="7.12634">
					<ele>372</ele>
					<time>0001-01-01T00:00:00Z</time>
				</trkpt>
				<trkpt lat="58.50235" lon="7.12507">
					<ele>378</ele>
					<time>0001-01-01T00:00:00Z</time>
				</trkpt>
				<trkpt lat="58.50265" lon="7.12332">
					<ele>383</ele>
					<time>0001-01-01T00:00:00Z</time>
				</trkpt>
				<trkpt lat="58.50280" lon="7.12180">
					<ele>393</ele>
					<time>0001-01-01T00:00:00Z</time>
				</trkpt>
				<trkpt lat="58.50283" lon="7.12015">
					<ele>400</ele>
					<time>0001-01-01T00:00:00Z</time>
				</trkpt>
				<trkpt lat="58.50286" lon="7.11877">
					<ele>406</ele>
					<time>0001-01-01T00:00:00Z</time>
				</trkpt>
				<trkpt lat="58.50311" lon="7.11746">
					<ele>410</ele>
					<time>0001-01-01T00:00:00Z</time>
				</trkpt>
				<trkpt lat="58.50352" lon="7.11600">
					<ele>418</ele>
					<time>0001-01-01T00:00:00Z</time>
				</trkpt>
				<trkpt lat="58.50402" lon="7.11478">
					<ele>424</ele>
					<time>0001-01-01T00:00:00Z</time>
				</trkpt>
				<trkpt lat="58.50454" lon="7.11334">
					<ele>429</ele>
					<time>0001-01-01T00:00:00Z</time>
				</trkpt>
				<trkpt lat="58.50495" lon="7.11231">
					<ele>434</ele>
					<time>0001-01-01T00:00:00Z</time>
				</trkpt>
				<trkpt lat="58.50541" lon="7.11146">
					<ele>441</ele>
					<time>0001-01-01T00:00:00Z</time>
				</trkpt>
				<trkpt lat="58.50600" lon="7.11090">
					<ele>446</ele>
					<time>0001-01-01T00:00:00Z</time>
				</trkpt>
				<trkpt lat="58.50633" lon="7.10981">
					<ele>452</ele>
					<time>0001-01-01T00:00:00Z</time>
				</trkpt>
				<trkpt lat="58.50644" lon="7.10885">
					<ele>459</ele>
					<time>0001-01-01T00:00:00Z</time>
				</trkpt>
				<trkpt lat="58.50643" lon="7.10876">
					<ele>460</ele>
					<time>0001-01-01T00:00:00Z</time>
				</trkpt>
				<trkpt lat="58.50631" lon="7.10784">
					<ele>467</ele>
					<time>0001-01-01T00:00:00Z</time>
				</trkpt>
				<trkpt lat="58.50581" lon="7.10666">
					<ele>473</ele>
					<time>0001-01-01T00:00:00Z</time>
				</trkpt>
				<trkpt lat="58.50520" lon="7.10546">
					<ele>478</ele>
					<time>0001-01-01T00:00:00Z</time>
				</trkpt>
				<trkpt lat="58.50476" lon="7.10436">
					<ele>482</ele>
					<time>0001-01-01T00:00:00Z</time>
				</trkpt>
				<trkpt lat="58.50466" lon="7.10278">
					<ele>487</ele>
					<time>0001-01-01T00:00:00Z</time>
				</trkpt>
				<trkpt lat="58.50475" lon="7.10093">
					<ele>495</ele>
					<time>0001-01-01T00:00:00Z</time>
				</trkpt>
				<trkpt lat="58.50452" lon="7.09971">
					<ele>501</ele>
					<time>0001-01-01T00:00:00Z</time>
				</trkpt>
				<trkpt lat="58.50388" lon="7.09865">
					<ele>505</ele>
					<time>0001-01-01T00:00:00Z</time>
				</trkpt>
				<trkpt lat="58.50313" lon="7.09670">
					<ele>511</ele>
					<time>0001-01-01T00:00:00Z</time>
				</trkpt>
				<trkpt lat="58.50266" lon="7.09514">
					<ele>513</ele>
					<time>0001-01-01T00:00:00Z</time>
				</trkpt>
				<trkpt lat="58.50233" lon="7.09356">
					<ele>506</ele>
					<time>0001-01-01T00:00:00Z</time>
				</trkpt>
				<trkpt lat="58.50181" lon="7.09094">
					<ele>498</ele>
					<time>0001-01-01T00:00:00Z</time>
				</trkpt>
				<trkpt lat="58.50184" lon="7.09052">
					<ele>498</ele>
					<time>0001-01-01T00:00:00Z</time>
				</trkpt>
				<trkpt lat="58.50185" lon="7.09047">
					<ele>498</ele>
					<time>0001-01-01T00:00:00Z</time>
				</trkpt>
				<trkpt lat="58.50184" lon="7.09046">
					<ele>499</ele>
					<time>0001-01-01T00:00:00Z</time>
				</trkpt>
				<trkpt lat="58.50183" lon="7.09039">
					<ele>505</ele>
					<time>0001-01-01T00:00:00Z</time>
				</trkpt>
				<trkpt lat="58.50176" lon="7.09048">
					<ele>501</ele>
					<time>0001-01-01T00:00:00Z</time>
				</trkpt>
				<trkpt lat="58.50178" lon="7.09045">
					<ele>508</ele>
					<time>0001-01-01T00:00:00Z</time>
				</trkpt>
				<trkpt lat="58.50178" lon="7.09049">
					<ele>500</ele>
					<time>0001-01-01T00:00:00Z</time>
				</trkpt>
				<trkpt lat="58.50177" lon="7.09043">
					<ele>499</ele>
					<time>0001-01-01T00:00:00Z</time>
				</trkpt>
				<trkpt lat="58.50159" lon="7.08955">
					<ele>497</ele>
					<time>0001-01-01T00:00:00Z</time>
				</trkpt>
				<trkpt lat="58.50164" lon="7.08747">
					<ele>492</ele>
					<time>0001-01-01T00:00:00Z</time>
				</trkpt>
				<trkpt lat="58.50216" lon="7.08451">
					<ele>483</ele>
					<time>0001-01-01T00:00:00Z</time>
				</trkpt>
				<trkpt lat="58.50308" lon="7.08260">
					<ele>479</ele>
					<time>0001-01-01T00:00:00Z</time>
				</trkpt>
				<trkpt lat="58.50410" lon="7.08078">
					<ele>479</ele>
					<time>0001-01-01T00:00:00Z</time>
				</trkpt>
				<trkpt lat="58.50457" lon="7.07910">
					<ele>473</ele>
					<time>0001-01-01T00:00:00Z</time>
				</trkpt>
				<trkpt lat="58.50440" lon="7.07739">
					<ele>464</ele>
					<time>0001-01-01T00:00:00Z</time>
				</trkpt>
				<trkpt lat="58.50315" lon="7.07316">
					<ele>450</ele>
					<time>0001-01-01T00:00:00Z</time>
				</trkpt>
				<trkpt lat="58.50294" lon="7.06999">
					<ele>434</ele>
					<time>0001-01-01T00:00:00Z</time>
				</trkpt>
				<trkpt lat="58.50292" lon="7.06913">
					<ele>431</ele>
					<time>0001-01-01T00:00:00Z</time>
				</trkpt>
				<trkpt lat="58.50242" lon="7.06812">
					<ele>423</ele>
					<time>0001-01-01T00:00:00Z</time>
				</trkpt>
				<trkpt lat="58.50204" lon="7.06718">
					<ele>417</ele>
					<time>0001-01-01T00:00:00Z</time>
				</trkpt>
				<trkpt lat="58.50171" lon="7.06581">
					<ele>414</ele>
					<time>0001-01-01T00:00:00Z</time>
				</trkpt>
				<trkpt lat="58.50154" lon="7.06541">
					<ele>413</ele>
					<time>0001-01-01T00:00:00Z</time>
				</trkpt>
				<trkpt lat="58.50074" lon="7.06506">
					<ele>409</ele>
					<time>0001-01-01T00:00:00Z</time>
				</trkpt>
				<trkpt lat="58.50023" lon="7.06435">
					<ele>406</ele>
					<time>0001-01-01T00:00:00Z</time>
				</trkpt>
				<trkpt lat="58.50008" lon="7.06301">
					<ele>399</ele>
					<time>0001-01-01T00:00:00Z</time>
				</trkpt>
				<trkpt lat="58.49990" lon="7.06120">
					<ele>387</ele>
					<time>0001-01-01T00:00:00Z</time>
				</trkpt>
				<trkpt lat="58.50027" lon="7.06044">
					<ele>378</ele>
					<time>0001-01-01T00:00:00Z</time>
				</trkpt>
				<trkpt lat="58.50049" lon="7.06056">
					<ele>376</ele>
					<time>0001-01-01T00:00:00Z</time>
				</trkpt>
				<trkpt lat="58.50071" lon="7.06072">
					<ele>375</ele>
					<time>0001-01-01T00:00:00Z</time>
				</trkpt>
				<trkpt lat="58.50126" lon="7.06027">
					<ele>369</ele>
					<time>0001-01-01T00:00:00Z</time>
				</trkpt>
				<trkpt lat="58.50113" lon="7.05914">
					<ele>363</ele>
					<time>0001-01-01T00:00:00Z</time>
				</trkpt>
				<trkpt lat="58.50082" lon="7.05830">
					<ele>359</ele>
					<time>0001-01-01T00:00:00Z</time>
				</trkpt>
				<trkpt lat="58.50066" lon="7.05795">
					<ele>357</ele>
					<time>0001-01-01T00:00:00Z</time>
				</trkpt>
				<trkpt lat="58.50072" lon="7.05684">
					<ele>348</ele>
					<time>0001-01-01T00:00:00Z</time>
				</trkpt>
				<trkpt lat="58.50081" lon="7.05671">
					<ele>347</ele>
					<time>0001-01-01T00:00:00Z</time>
				</trkpt>
				<trkpt lat="58.50112" lon="7.05553">
					<ele>340</ele>
					<time>0001-01-01T00:00:00Z</time>
				</trkpt>
				<trkpt lat="58.50087" lon="7.05424">
					<ele>333</ele>
					<time>0001-01-01T00:00:00Z</time>
				</trkpt>
				<trkpt lat="58.50096" lon="7.05252">
					<ele>324</ele>
					<time>0001-01-01T00:00:00Z</time>
				</trkpt>
				<trkpt lat="58.50128" lon="7.05232">
					<ele>321</ele>
					<time>0001-01-01T00:00:00Z</time>
				</trkpt>
				<trkpt lat="58.50171" lon="7.05139">
					<ele>316</ele>
					<time>0001-01-01T00:00:00Z</time>
				</trkpt>
				<trkpt lat="58.50142" lon="7.05082">
					<ele>312</ele>
					<time>0001-01-01T00:00:00Z</time>
				</trkpt>
				<trkpt lat="58.50122" lon="7.05056">
					<ele>309</ele>
					<time>0001-01-01T00:00:00Z</time>
				</trkpt>
				<trkpt lat="58.50097" lon="7.04920">
					<ele>301</ele>
					<time>0001-01-01T00:00:00Z</time>
				</trkpt>
				<trkpt lat="58.50107" lon="7.04670">
					<ele>290</ele>
					<time>0001-01-01T00:00:00Z</time>
				</trkpt>
				<trkpt lat="58.50175" lon="7.04494">
					<ele>286</ele>
					<time>0001-01-01T00:00:00Z</time>
				</trkpt>
				<trkpt lat="58.50211" lon="7.04474">
					<ele>287</ele>
					<time>0001-01-01T00:00:00Z</time>
				</trkpt>
				<trkpt lat="58.50288" lon="7.04453">
					<ele>287</ele>
					<time>0001-01-01T00:00:00Z</time>
				</trkpt>
				<trkpt lat="58.50346" lon="7.04385">
					<ele>284</ele>
					<time>0001-01-01T00:00:00Z</time>
				</trkpt>
				<trkpt lat="58.50419" lon="7.04150">
					<ele>274</ele>
					<time>0001-01-01T00:00:00Z</time>
				</trkpt>
				<trkpt lat="58.50443" lon="7.04046">
					<ele>269</ele>
					<time>0001-01-01T00:00:00Z</time>
				</trkpt>
				<trkpt lat="58.50462" lon="7.03737">
					<ele>266</ele>
					<time>0001-01-01T00:00:00Z</time>
				</trkpt>
				<trkpt lat="58.50478" lon="7.03456">
					<ele>267</ele>
					<time>0001-01-01T00:00:00Z</time>
				</trkpt>
				<trkpt lat="58.50481" lon="7.03393">
					<ele>267</ele>
					<time>0001-01-01T00:00:00Z</time>
				</trkpt>
				<trkpt lat="58.50517" lon="7.03335">
					<ele>266</ele>
					<time>0001-01-01T00:00:00Z</time>
				</trkpt>
				<trkpt lat="58.50649" lon="7.03278">
					<ele>268</ele>
					<time>0001-01-01T00:00:00Z</time>
				</trkpt>
				<trkpt lat="58.50702" lon="7.03214">
					<ele>273</ele>
					<time>0001-01-01T00:00:00Z</time>
				</trkpt>
				<trkpt lat="58.50758" lon="7.03133">
					<ele>278</ele>
					<time>0001-01-01T00:00:00Z</time>
				</trkpt>
				<trkpt lat="58.50807" lon="7.03025">
					<ele>285</ele>
					<time>0001-01-01T00:00:00Z</time>
				</trkpt>
				<trkpt lat="58.50807" lon="7.02893">
					<ele>292</ele>
					<time>0001-01-01T00:00:00Z</time>
				</trkpt>
				<trkpt lat="58.50798" lon="7.02748">
					<ele>295</ele>
					<time>0001-01-01T00:00:00Z</time>
				</trkpt>
				<trkpt lat="58.50795" lon="7.02603">
					<ele>302</ele>
					<time>0001-01-01T00:00:00Z</time>
				</trkpt>
				<trkpt lat="58.50800" lon="7.02434">
					<ele>309</ele>
					<time>0001-01-01T00:00:00Z</time>
				</trkpt>
				<trkpt lat="58.50821" lon="7.02269">
					<ele>313</ele>
					<time>0001-01-01T00:00:00Z</time>
				</trkpt>
				<trkpt lat="58.50849" lon="7.02117">
					<ele>319</ele>
					<time>0001-01-01T00:00:00Z</time>
				</trkpt>
				<trkpt lat="58.50840" lon="7.01898">
					<ele>327</ele>
					<time>0001-01-01T00:00:00Z</time>
				</trkpt>
				<trkpt lat="58.50842" lon="7.01692">
					<ele>332</ele>
					<time>0001-01-01T00:00:00Z</time>
				</trkpt>
				<trkpt lat="58.50809" lon="7.01488">
					<ele>338</ele>
					<time>0001-01-01T00:00:00Z</time>
				</trkpt>
				<trkpt lat="58.50744" lon="7.01238">
					<ele>339</ele>
					<time>0001-01-01T00:00:00Z</time>
				</trkpt>
				<trkpt lat="58.50677" lon="7.00948">
					<ele>341</ele>
					<time>0001-01-01T00:00:00Z</time>
				</trkpt>
				<trkpt lat="58.50601" lon="7.00808">
					<ele>344</ele>
					<time>0001-01-01T00:00:00Z</time>
				</trkpt>
				<trkpt lat="58.50514" lon="7.00751">
					<ele>345</ele>
					<time>0001-01-01T00:00:00Z</time>
				</trkpt>
				<trkpt lat="58.50476" lon="7.00665">
					<ele>344</ele>
					<time>0001-01-01T00:00:00Z</time>
				</trkpt>
				<trkpt lat="58.50479" lon="7.00459">
					<ele>333</ele>
					<time>0001-01-01T00:00:00Z</time>
				</trkpt>
				<trkpt lat="58.50559" lon="7.00094">
					<ele>327</ele>
					<time>0001-01-01T00:00:00Z</time>
				</trkpt>
				<trkpt lat="58.50634" lon="6.99962">
					<ele>328</ele>
					<time>0001-01-01T00:00:00Z</time>
				</trkpt>
				<trkpt lat="58.50685" lon="6.99869">
					<ele>329</ele>
					<time>0001-01-01T00:00:00Z</time>
				</trkpt>
				<trkpt lat="58.50701" lon="6.99750">
					<ele>332</ele>
					<time>0001-01-01T00:00:00Z</time>
				</trkpt>
				<trkpt lat="58.50727" lon="6.99671">
					<ele>337</ele>
					<time>0001-01-01T00:00:00Z</time>
				</trkpt>
				<trkpt lat="58.50802" lon="6.99606">
					<ele>344</ele>
					<time>0001-01-01T00:00:00Z</time>
				</trkpt>
				<trkpt lat="58.50855" lon="6.99518">
					<ele>349</ele>
					<time>0001-01-01T00:00:00Z</time>
				</trkpt>
				<trkpt lat="58.50898" lon="6.99373">
					<ele>353</ele>
					<time>0001-01-01T00:00:00Z</time>
				</trkpt>
				<trkpt lat="58.50909" lon="6.99292">
					<ele>354</ele>
					<time>0001-01-01T00:00:00Z</time>
				</trkpt>
				<trkpt lat="58.50922" lon="6.99239">
					<ele>353</ele>
					<time>0001-01-01T00:00:00Z</time>
				</trkpt>
				<trkpt lat="58.51032" lon="6.99008">
					<ele>346</ele>
					<time>0001-01-01T00:00:00Z</time>
				</trkpt>
				<trkpt lat="58.51165" lon="6.98731">
					<ele>350</ele>
					<time>0001-01-01T00:00:00Z</time>
				</trkpt>
				<trkpt lat="58.51302" lon="6.98536">
					<ele>341</ele>
					<time>0001-01-01T00:00:00Z</time>
				</trkpt>
				<trkpt lat="58.51372" lon="6.98487">
					<ele>337</ele>
					<time>0001-01-01T00:00:00Z</time>
				</trkpt>
				<trkpt lat="58.51428" lon="6.98332">
					<ele>330</ele>
					<time>0001-01-01T00:00:00Z</time>
				</trkpt>
				<trkpt lat="58.51474" lon="6.97876">
					<ele>328</ele>
					<time>0001-01-01T00:00:00Z</time>
				</trkpt>
				<trkpt lat="58.51485" lon="6.97797">
					<ele>328</ele>
					<time>0001-01-01T00:00:00Z</time>
				</trkpt>
				<trkpt lat="58.51510" lon="6.97709">
					<ele>329</ele>
					<time>0001-01-01T00:00:00Z</time>
				</trkpt>
				<trkpt lat="58.51561" lon="6.97635">
					<ele>329</ele>
					<time>0001-01-01T00:00:00Z</time>
				</trkpt>
				<trkpt lat="58.51592" lon="6.97612">
					<ele>329</ele>
					<time>0001-01-01T00:00:00Z</time>
				</trkpt>
				<trkpt lat="58.51626" lon="6.97565">
					<ele>328</ele>
					<time>0001-01-01T00:00:00Z</time>
				</trkpt>
				<trkpt lat="58.51765" lon="6.97267">
					<ele>329</ele>
					<time>0001-01-01T00:00:00Z</time>
				</trkpt>
				<trkpt lat="58.51797" lon="6.97161">
					<ele>330</ele>
					<time>0001-01-01T00:00:00Z</time>
				</trkpt>
				<trkpt lat="58.51801" lon="6.97090">
					<ele>329</ele>
					<time>0001-01-01T00:00:00Z</time>
				</trkpt>
				<trkpt lat="58.51797" lon="6.96985">
					<ele>329</ele>
					<time>0001-01-01T00:00:00Z</time>
				</trkpt>
				<trkpt lat="58.51834" lon="6.96893">
					<ele>331</ele>
					<time>0001-01-01T00:00:00Z</time>
				</trkpt>
				<trkpt lat="58.51855" lon="6.96871">
					<ele>333</ele>
					<time>0001-01-01T00:00:00Z</time>
				</trkpt>
				<trkpt lat="58.51930" lon="6.96687">
					<ele>337</ele>
					<time>0001-01-01T00:00:00Z</time>
				</trkpt>
				<trkpt lat="58.52007" lon="6.96469">
					<ele>328</ele>
					<time>0001-01-01T00:00:00Z</time>
				</trkpt>
				<trkpt lat="58.52014" lon="6.96451">
					<ele>327</ele>
					<time>0001-01-01T00:00:00Z</time>
				</trkpt>
				<trkpt lat="58.52073" lon="6.96418">
					<ele>328</ele>
					<time>0001-01-01T00:00:00Z</time>
				</trkpt>
				<trkpt lat="58.52163" lon="6.96456">
					<ele>328</ele>
					<time>0001-01-01T00:00:00Z</time>
				</trkpt>
				<trkpt lat="58.52225" lon="6.96373">
					<ele>327</ele>
					<time>0001-01-01T00:00:00Z</time>
				</trkpt>
				<trkpt lat="58.52228" lon="6.96338">
					<ele>327</ele>
					<time>0001-01-01T00:00:00Z</time>
				</trkpt>
				<trkpt lat="58.52250" lon="6.96018">
					<ele>327</ele>
					<time>0001-01-01T00:00:00Z</time>
				</trkpt>
				<trkpt lat="58.52289" lon="6.95670">
					<ele>327</ele>
					<time>0001-01-01T00:00:00Z</time>
				</trkpt>
				<trkpt lat="58.52302" lon="6.95613">
					<ele>327</ele>
					<time>0001-01-01T00:00:00Z</time>
				</trkpt>
				<trkpt lat="58.52316" lon="6.95439">
					<ele>327</ele>
					<time>0001-01-01T00:00:00Z</time>
				</trkpt>
				<trkpt lat="58.52308" lon="6.95364">
					<ele>326</ele>
					<time>0001-01-01T00:00:00Z</time>
				</trkpt>
				<trkpt lat="58.52317" lon="6.95190">
					<ele>325</ele>
					<time>0001-01-01T00:00:00Z</time>
				</trkpt>
				<trkpt lat="58.52355" lon="6.95043">
					<ele>323</ele>
					<time>0001-01-01T00:00:00Z</time>
				</trkpt>
				<trkpt lat="58.52361" lon="6.95003">
					<ele>321</ele>
					<time>0001-01-01T00:00:00Z</time>
				</trkpt>
				<trkpt lat="58.52355" lon="6.94887">
					<ele>316</ele>
					<time>0001-01-01T00:00:00Z</time>
				</trkpt>
				<trkpt lat="58.52348" lon="6.94843">
					<ele>314</ele>
					<time>0001-01-01T00:00:00Z</time>
				</trkpt>
				<trkpt lat="58.52338" lon="6.94669">
					<ele>307</ele>
					<time>0001-01-01T00:00:00Z</time>
				</trkpt>
				<trkpt lat="58.52324" lon="6.94640">
					<ele>307</ele>
					<time>0001-01-01T00:00:00Z</time>
				</trkpt>
				<trkpt lat="58.52305" lon="6.94593">
					<ele>305</ele>
					<time>0001-01-01T00:00:00Z</time>
				</trkpt>
				<trkpt lat="58.52335" lon="6.94597">
					<ele>303</ele>
					<time>0001-01-01T00:00:00Z</time>
				</trkpt>
				<trkpt lat="58.52356" lon="6.94609">
					<ele>302</ele>
					<time>0001-01-01T00:00:00Z</time>
				</trkpt>
				<trkpt lat="58.52395" lon="6.94561">
					<ele>299</ele>
					<time>0001-01-01T00:00:00Z</time>
				</trkpt>
				<trkpt lat="58.52396" lon="6.94490">
					<ele>294</ele>
					<time>0001-01-01T00:00:00Z</time>
				</trkpt>
				<trkpt lat="58.52391" lon="6.94263">
					<ele>280</ele>
					<time>0001-01-01T00:00:00Z</time>
				</trkpt>
				<trkpt lat="58.52399" lon="6.94186">
					<ele>276</ele>
					<time>0001-01-01T00:00:00Z</time>
				</trkpt>
				<trkpt lat="58.52397" lon="6.94051">
					<ele>268</ele>
					<time>0001-01-01T00:00:00Z</time>
				</trkpt>
				<trkpt lat="58.52433" lon="6.93908">
					<ele>258</ele>
					<time>0001-01-01T00:00:00Z</time>
				</trkpt>
				<trkpt lat="58.52440" lon="6.93795">
					<ele>249</ele>
					<time>0001-01-01T00:00:00Z</time>
				</trkpt>
				<trkpt lat="58.52418" lon="6.93716">
					<ele>244</ele>
					<time>0001-01-01T00:00:00Z</time>
				</trkpt>
				<trkpt lat="58.52406" lon="6.93638">
					<ele>239</ele>
					<time>0001-01-01T00:00:00Z</time>
				</trkpt>
				<trkpt lat="58.52383" lon="6.93622">
					<ele>235</ele>
					<time>0001-01-01T00:00:00Z</time>
				</trkpt>
				<trkpt lat="58.52378" lon="6.93738">
					<ele>229</ele>
					<time>0001-01-01T00:00:00Z</time>
				</trkpt>
				<trkpt lat="58.52372" lon="6.93781">
					<ele>227</ele>
					<time>0001-01-01T00:00:00Z</time>
				</trkpt>
				<trkpt lat="58.52362" lon="6.93849">
					<ele>223</ele>
					<time>0001-01-01T00:00:00Z</time>
				</trkpt>
				<trkpt lat="58.52340" lon="6.93861">
					<ele>220</ele>
					<time>0001-01-01T00:00:00Z</time>
				</trkpt>
				<trkpt lat="58.52340" lon="6.93843">
					<ele>219</ele>
					<time>0001-01-01T00:00:00Z</time>
				</trkpt>
				<trkpt lat="58.52330" lon="6.93587">
					<ele>210</ele>
					<time>0001-01-01T00:00:00Z</time>
				</trkpt>
				<trkpt lat="58.52298" lon="6.93546">
					<ele>209</ele>
					<time>0001-01-01T00:00:00Z</time>
				</trkpt>
				<trkpt lat="58.52151" lon="6.93493">
					<ele>209</ele>
					<time>0001-01-01T00:00:00Z</time>
				</trkpt>
				<trkpt lat="58.52114" lon="6.93510">
					<ele>208</ele>
					<time>0001-01-01T00:00:00Z</time>
				</trkpt>
				<trkpt lat="58.51935" lon="6.93662">
					<ele>204</ele>
					<time>0001-01-01T00:00:00Z</time>
				</trkpt>
				<trkpt lat="58.51758" lon="6.93728">
					<ele>202</ele>
					<time>0001-01-01T00:00:00Z</time>
				</trkpt>
				<trkpt lat="58.51509" lon="6.93802">
					<ele>201</ele>
					<time>0001-01-01T00:00:00Z</time>
				</trkpt>
				<trkpt lat="58.51330" lon="6.93856">
					<ele>201</ele>
					<time>0001-01-01T00:00:00Z</time>
				</trkpt>
				<trkpt lat="58.51286" lon="6.93839">
					<ele>200</ele>
					<time>0001-01-01T00:00:00Z</time>
				</trkpt>
				<trkpt lat="58.51115" lon="6.93750">
					<ele>200</ele>
					<time>0001-01-01T00:00:00Z</time>
				</trkpt>
				<trkpt lat="58.50887" lon="6.93718">
					<ele>200</ele>
					<time>0001-01-01T00:00:00Z</time>
				</trkpt>
				<trkpt lat="58.50634" lon="6.93710">
					<ele>197</ele>
					<time>0001-01-01T00:00:00Z</time>
				</trkpt>
				<trkpt lat="58.50419" lon="6.93712">
					<ele>198</ele>
					<time>0001-01-01T00:00:00Z</time>
				</trkpt>
				<trkpt lat="58.50287" lon="6.93651">
					<ele>198</ele>
					<time>0001-01-01T00:00:00Z</time>
				</trkpt>
				<trkpt lat="58.50136" lon="6.93553">
					<ele>198</ele>
					<time>0001-01-01T00:00:00Z</time>
				</trkpt>
				<trkpt lat="58.49914" lon="6.93383">
					<ele>198</ele>
					<time>0001-01-01T00:00:00Z</time>
				</trkpt>
				<trkpt lat="58.49662" lon="6.93246">
					<ele>198</ele>
					<time>0001-01-01T00:00:00Z</time>
				</trkpt>
				<trkpt lat="58.49465" lon="6.93154">
					<ele>196</ele>
					<time>0001-01-01T00:00:00Z</time>
				</trkpt>
				<trkpt lat="58.49240" lon="6.93055">
					<ele>190</ele>
					<time>0001-01-01T00:00:00Z</time>
				</trkpt>
				<trkpt lat="58.49062" lon="6.92986">
					<ele>191</ele>
					<time>0001-01-01T00:00:00Z</time>
				</trkpt>
				<trkpt lat="58.48921" lon="6.92990">
					<ele>189</ele>
					<time>0001-01-01T00:00:00Z</time>
				</trkpt>
				<trkpt lat="58.48856" lon="6.93018">
					<ele>187</ele>
					<time>0001-01-01T00:00:00Z</time>
				</trkpt>
				<trkpt lat="58.48798" lon="6.93140">
					<ele>182</ele>
					<time>0001-01-01T00:00:00Z</time>
				</trkpt>
				<trkpt lat="58.48796" lon="6.93163">
					<ele>182</ele>
					<time>0001-01-01T00:00:00Z</time>
				</trkpt>
				<trkpt lat="58.48768" lon="6.93265">
					<ele>180</ele>
					<time>0001-01-01T00:00:00Z</time>
				</trkpt>
				<trkpt lat="58.48595" lon="6.93541">
					<ele>181</ele>
					<time>0001-01-01T00:00:00Z</time>
				</trkpt>
				<trkpt lat="58.48472" lon="6.93666">
					<ele>180</ele>
					<time>0001-01-01T00:00:00Z</time>
				</trkpt>
				<trkpt lat="58.48407" lon="6.93619">
					<ele>180</ele>
					<time>0001-01-01T00:00:00Z</time>
				</trkpt>
				<trkpt lat="58.48402" lon="6.93604">
					<ele>180</ele>
					<time>0001-01-01T00:00:00Z</time>
				</trkpt>
				<trkpt lat="58.48348" lon="6.93481">
					<ele>183</ele>
					<time>0001-01-01T00:00:00Z</time>
				</trkpt>
				<trkpt lat="58.48273" lon="6.93478">
					<ele>183</ele>
					<time>0001-01-01T00:00:00Z</time>
				</trkpt>
				<trkpt lat="58.48147" lon="6.93648">
					<ele>177</ele>
					<time>0001-01-01T00:00:00Z</time>
				</trkpt>
				<trkpt lat="58.48127" lon="6.93765">
					<ele>175</ele>
					<time>0001-01-01T00:00:00Z</time>
				</trkpt>
				<trkpt lat="58.48123" lon="6.93835">
					<ele>174</ele>
					<time>0001-01-01T00:00:00Z</time>
				</trkpt>
				<trkpt lat="58.48077" lon="6.93926">
					<ele>173</ele>
					<time>0001-01-01T00:00:00Z</time>
				</trkpt>
				<trkpt lat="58.48019" lon="6.93873">
					<ele>174</ele>
					<time>0001-01-01T00:00:00Z</time>
				</trkpt>
				<trkpt lat="58.48003" lon="6.93841">
					<ele>174</ele>
					<time>0001-01-01T00:00:00Z</time>
				</trkpt>
				<trkpt lat="58.47940" lon="6.93759">
					<ele>175</ele>
					<time>0001-01-01T00:00:00Z</time>
				</trkpt>
				<trkpt lat="58.47913" lon="6.93692">
					<ele>176</ele>
					<time>0001-01-01T00:00:00Z</time>
				</trkpt>
				<trkpt lat="58.47813" lon="6.93383">
					<ele>176</ele>
					<time>0001-01-01T00:00:00Z</time>
				</trkpt>
				<trkpt lat="58.47772" lon="6.93327">
					<ele>177</ele>
					<time>0001-01-01T00:00:00Z</time>
				</trkpt>
				<trkpt lat="58.47614" lon="6.93271">
					<ele>174</ele>
					<time>0001-01-01T00:00:00Z</time>
				</trkpt>
				<trkpt lat="58.47602" lon="6.93265">
					<ele>174</ele>
					<time>0001-01-01T00:00:00Z</time>
				</trkpt>
				<trkpt lat="58.47557" lon="6.93187">
					<ele>173</ele>
					<time>0001-01-01T00:00:00Z</time>
				</trkpt>
				<trkpt lat="58.47511" lon="6.93051">
					<ele>172</ele>
					<time>0001-01-01T00:00:00Z</time>
				</trkpt>
				<trkpt lat="58.47436" lon="6.93014">
					<ele>172</ele>
					<time>0001-01-01T00:00:00Z</time>
				</trkpt>
				<trkpt lat="58.47415" lon="6.93031">
					<ele>173</ele>
					<time>0001-01-01T00:00:00Z</time>
				</trkpt>
				<trkpt lat="58.47309" lon="6.93052">
					<ele>176</ele>
					<time>0001-01-01T00:00:00Z</time>
				</trkpt>
				<trkpt lat="58.47177" lon="6.93092">
					<ele>172</ele>
					<time>0001-01-01T00:00:00Z</time>
				</trkpt>
				<trkpt lat="58.46977" lon="6.93165">
					<ele>171</ele>
					<time>0001-01-01T00:00:00Z</time>
				</trkpt>
				<trkpt lat="58.46915" lon="6.93096">
					<ele>171</ele>
					<time>0001-01-01T00:00:00Z</time>
				</trkpt>
				<trkpt lat="58.46912" lon="6.93052">
					<ele>171</ele>
					<time>0001-01-01T00:00:00Z</time>
				</trkpt>
				<trkpt lat="58.46924" lon="6.92873">
					<ele>170</ele>
					<time>0001-01-01T00:00:00Z</time>
				</trkpt>
				<trkpt lat="58.46884" lon="6.92746">
					<ele>168</ele>
					<time>0001-01-01T00:00:00Z</time>
				</trkpt>
				<trkpt lat="58.46862" lon="6.92734">
					<ele>169</ele>
					<time>0001-01-01T00:00:00Z</time>
				</trkpt>
				<trkpt lat="58.46584" lon="6.92620">
					<ele>169</ele>
					<time>0001-01-01T00:00:00Z</time>
				</trkpt>
				<trkpt lat="58.46382" lon="6.92604">
					<ele>169</ele>
					<time>0001-01-01T00:00:00Z</time>
				</trkpt>
				<trkpt lat="58.46259" lon="6.92596">
					<ele>169</ele>
					<time>0001-01-01T00:00:00Z</time>
				</trkpt>
				<trkpt lat="58.46052" lon="6.92476">
					<ele>171</ele>
					<time>0001-01-01T00:00:00Z</time>
				</trkpt>
				<trkpt lat="58.45863" lon="6.92377">
					<ele>171</ele>
					<time>0001-01-01T00:00:00Z</time>
				</trkpt>
				<trkpt lat="58.45699" lon="6.92259">
					<ele>171</ele>
					<time>0001-01-01T00:00:00Z</time>
				</trkpt>
				<trkpt lat="58.45501" lon="6.92158">
					<ele>170</ele>
					<time>0001-01-01T00:00:00Z</time>
				</trkpt>
				<trkpt lat="58.45333" lon="6.92067">
					<ele>170</ele>
					<time>0001-01-01T00:00:00Z</time>
				</trkpt>
				<trkpt lat="58.45166" lon="6.92048">
					<ele>170</ele>
					<time>0001-01-01T00:00:00Z</time>
				</trkpt>
				<trkpt lat="58.45011" lon="6.92042">
					<ele>170</ele>
					<time>0001-01-01T00:00:00Z</time>
				</trkpt>
				<trkpt lat="58.44828" lon="6.92101">
					<ele>169</ele>
					<time>0001-01-01T00:00:00Z</time>
				</trkpt>
				<trkpt lat="58.44633" lon="6.92130">
					<ele>170</ele>
					<time>0001-01-01T00:00:00Z</time>
				</trkpt>
				<trkpt lat="58.44421" lon="6.92198">
					<ele>166</ele>
					<time>0001-01-01T00:00:00Z</time>
				</trkpt>
				<trkpt lat="58.44262" lon="6.92212">
					<ele>166</ele>
					<time>0001-01-01T00:00:00Z</time>
				</trkpt>
				<trkpt lat="58.44043" lon="6.92213">
					<ele>165</ele>
					<time>0001-01-01T00:00:00Z</time>
				</trkpt>
				<trkpt lat="58.43857" lon="6.92199">
					<ele>165</ele>
					<time>0001-01-01T00:00:00Z</time>
				</trkpt>
				<trkpt lat="58.43717" lon="6.92144">
					<ele>165</ele>
					<time>0001-01-01T00:00:00Z</time>
				</trkpt>
				<trkpt lat="58.43555" lon="6.92155">
					<ele>165</ele>
					<time>0001-01-01T00:00:00Z</time>
				</trkpt>
				<trkpt lat="58.43422" lon="6.92197">
					<ele>166</ele>
					<time>0001-01-01T00:00:00Z</time>
				</trkpt>
				<trkpt lat="58.43243" lon="6.92294">
					<ele>166</ele>
					<time>0001-01-01T00:00:00Z</time>
				</trkpt>
				<trkpt lat="58.43032" lon="6.92409">
					<ele>164</ele>
					<time>0001-01-01T00:00:00Z</time>
				</trkpt>
				<trkpt lat="58.42895" lon="6.92420">
					<ele>165</ele>
					<time>0001-01-01T00:00:00Z</time>
				</trkpt>
				<trkpt lat="58.42680" lon="6.92418">
					<ele>164</ele>
					<time>0001-01-01T00:00:00Z</time>
				</trkpt>
				<trkpt lat="58.42468" lon="6.92504">
					<ele>164</ele>
					<time>0001-01-01T00:00:00Z</time>
				</trkpt>
				<trkpt lat="58.42299" lon="6.92538">
					<ele>164</ele>
					<time>0001-01-01T00:00:00Z</time>
				</trkpt>
				<trkpt lat="58.42070" lon="6.92579">
					<ele>162</ele>
					<time>0001-01-01T00:00:00Z</time>
				</trkpt>
				<trkpt lat="58.41895" lon="6.92654">
					<ele>162</ele>
					<time>0001-01-01T00:00:00Z</time>
				</trkpt>
				<trkpt lat="58.41720" lon="6.92831">
					<ele>161</ele>
					<time>0001-01-01T00:00:00Z</time>
				</trkpt>
				<trkpt lat="58.41524" lon="6.92890">
					<ele>158</ele>
					<time>0001-01-01T00:00:00Z</time>
				</trkpt>
				<trkpt lat="58.41414" lon="6.92873">
					<ele>158</ele>
					<time>0001-01-01T00:00:00Z</time>
				</trkpt>
				<trkpt lat="58.41206" lon="6.92953">
					<ele>157</ele>
					<time>0001-01-01T00:00:00Z</time>
				</trkpt>
				<trkpt lat="58.41071" lon="6.92944">
					<ele>155</ele>
					<time>0001-01-01T00:00:00Z</time>
				</trkpt>
				<trkpt lat="58.40956" lon="6.93005">
					<ele>152</ele>
					<time>0001-01-01T00:00:00Z</time>
				</trkpt>
				<trkpt lat="58.40778" lon="6.93204">
					<ele>150</ele>
					<time>0001-01-01T00:00:00Z</time>
				</trkpt>
				<trkpt lat="58.40601" lon="6.93359">
					<ele>149</ele>
					<time>0001-01-01T00:00:00Z</time>
				</trkpt>
				<trkpt lat="58.40554" lon="6.93406">
					<ele>148</ele>
					<time>0001-01-01T00:00:00Z</time>
				</trkpt>
				<trkpt lat="58.40446" lon="6.93646">
					<ele>147</ele>
					<time>0001-01-01T00:00:00Z</time>
				</trkpt>
				<trkpt lat="58.40291" lon="6.94015">
					<ele>144</ele>
					<time>0001-01-01T00:00:00Z</time>
				</trkpt>
				<trkpt lat="58.40193" lon="6.94234">
					<ele>143</ele>
					<time>0001-01-01T00:00:00Z</time>
				</trkpt>
				<trkpt lat="58.40135" lon="6.94264">
					<ele>143</ele>
					<time>0001-01-01T00:00:00Z</time>
				</trkpt>
				<trkpt lat="58.39945" lon="6.94288">
					<ele>142</ele>
					<time>0001-01-01T00:00:00Z</time>
				</trkpt>
				<trkpt lat="58.39760" lon="6.94285">
					<ele>142</ele>
					<time>0001-01-01T00:00:00Z</time>
				</trkpt>
				<trkpt lat="58.39731" lon="6.94272">
					<ele>142</ele>
					<time>0001-01-01T00:00:00Z</time>
				</trkpt>
				<trkpt lat="58.39672" lon="6.94334">
					<ele>142</ele>
					<time>0001-01-01T00:00:00Z</time>
				</trkpt>
				<trkpt lat="58.39662" lon="6.94369">
					<ele>142</ele>
					<time>0001-01-01T00:00:00Z</time>
				</trkpt>
				<trkpt lat="58.39646" lon="6.94441">
					<ele>143</ele>
					<time>0001-01-01T00:00:00Z</time>
				</trkpt>
				<trkpt lat="58.39663" lon="6.94540">
					<ele>143</ele>
					<time>0001-01-01T00:00:00Z</time>
				</trkpt>
				<trkpt lat="58.39743" lon="6.94761">
					<ele>142</ele>
					<time>0001-01-01T00:00:00Z</time>
				</trkpt>
				<trkpt lat="58.39738" lon="6.94911">
					<ele>140</ele>
					<time>0001-01-01T00:00:00Z</time>
				</trkpt>
				<trkpt lat="58.39727" lon="6.94945">
					<ele>140</ele>
					<time>0001-01-01T00:00:00Z</time>
				</trkpt>
				<trkpt lat="58.39691" lon="6.95018">
					<ele>139</ele>
					<time>0001-01-01T00:00:00Z</time>
				</trkpt>
				<trkpt lat="58.39645" lon="6.95061">
					<ele>139</ele>
					<time>0001-01-01T00:00:00Z</time>
				</trkpt>
				<trkpt lat="58.39402" lon="6.95193">
					<ele>138</ele>
					<time>0001-01-01T00:00:00Z</time>
				</trkpt>
				<trkpt lat="58.39317" lon="6.95293">
					<ele>139</ele>
					<time>0001-01-01T00:00:00Z</time>
				</trkpt>
				<trkpt lat="58.39290" lon="6.95316">
					<ele>139</ele>
					<time>0001-01-01T00:00:00Z</time>
				</trkpt>
				<trkpt lat="58.39238" lon="6.95308">
					<ele>138</ele>
					<time>0001-01-01T00:00:00Z</time>
				</trkpt>
				<trkpt lat="58.39181" lon="6.95277">
					<ele>137</ele>
					<time>0001-01-01T00:00:00Z</time>
				</trkpt>
				<trkpt lat="58.39154" lon="6.95284">
					<ele>137</ele>
					<time>0001-01-01T00:00:00Z</time>
				</trkpt>
				<trkpt lat="58.39028" lon="6.95371">
					<ele>134</ele>
					<time>0001-01-01T00:00:00Z</time>
				</trkpt>
				<trkpt lat="58.38894" lon="6.95377">
					<ele>135</ele>
					<time>0001-01-01T00:00:00Z</time>
				</trkpt>
				<trkpt lat="58.38703" lon="6.95482">
					<ele>133</ele>
					<time>0001-01-01T00:00:00Z</time>
				</trkpt>
				<trkpt lat="58.38487" lon="6.95602">
					<ele>132</ele>
					<time>0001-01-01T00:00:00Z</time>
				</trkpt>
				<trkpt lat="58.38303" lon="6.95663">
					<ele>130</ele>
					<time>0001-01-01T00:00:00Z</time>
				</trkpt>
				<trkpt lat="58.38196" lon="6.95639">
					<ele>133</ele>
					<time>0001-01-01T00:00:00Z</time>
				</trkpt>
				<trkpt lat="58.38160" lon="6.95664">
					<ele>133</ele>
					<time>0001-01-01T00:00:00Z</time>
				</trkpt>
				<trkpt lat="58.38009" lon="6.95858">
					<ele>130</ele>
					<time>0001-01-01T00:00:00Z</time>
				</trkpt>
				<trkpt lat="58.37867" lon="6.96047">
					<ele>132</ele>
					<time>0001-01-01T00:00:00Z</time>
				</trkpt>
				<trkpt lat="58.37798" lon="6.96160">
					<ele>138</ele>
					<time>0001-01-01T00:00:00Z</time>
				</trkpt>
				<trkpt lat="58.37781" lon="6.96177">
					<ele>141</ele>
					<time>0001-01-01T00:00:00Z</time>
				</trkpt>
				<trkpt lat="58.37778" lon="6.96176">
					<ele>142</ele>
					<time>0001-01-01T00:00:00Z</time>
				</trkpt>
				<trkpt lat="58.37761" lon="6.96220">
					<ele>143</ele>
					<time>0001-01-01T00:00:00Z</time>
				</trkpt>
				<trkpt lat="58.37736" lon="6.96310">
					<ele>140</ele>
					<time>0001-01-01T00:00:00Z</time>
				</trkpt>
				<trkpt lat="58.37645" lon="6.96473">
					<ele>134</ele>
					<time>0001-01-01T00:00:00Z</time>
				</trkpt>
				<trkpt lat="58.37486" lon="6.96728">
					<ele>131</ele>
					<time>0001-01-01T00:00:00Z</time>
				</trkpt>
				<trkpt lat="58.37378" lon="6.96902">
					<ele>133</ele>
					<time>0001-01-01T00:00:00Z</time>
				</trkpt>
				<trkpt lat="58.37295" lon="6.97040">
					<ele>131</ele>
					<time>0001-01-01T00:00:00Z</time>
				</trkpt>
				<trkpt lat="58.37164" lon="6.97291">
					<ele>124</ele>
					<time>0001-01-01T00:00:00Z</time>
				</trkpt>
				<trkpt lat="58.37099" lon="6.97326">
					<ele>123</ele>
					<time>0001-01-01T00:00:00Z</time>
				</trkpt>
				<trkpt lat="58.36879" lon="6.97315">
					<ele>125</ele>
					<time>0001-01-01T00:00:00Z</time>
				</trkpt>
				<trkpt lat="58.36775" lon="6.97263">
					<ele>126</ele>
					<time>0001-01-01T00:00:00Z</time>
				</trkpt>
				<trkpt lat="58.36574" lon="6.97217">
					<ele>120</ele>
					<time>0001-01-01T00:00:00Z</time>
				</trkpt>
				<trkpt lat="58.36468" lon="6.97141">
					<ele>114</ele>
					<time>0001-01-01T00:00:00Z</time>
				</trkpt>
				<trkpt lat="58.36313" lon="6.96977">
					<ele>108</ele>
					<time>0001-01-01T00:00:00Z</time>
				</trkpt>
				<trkpt lat="58.36221" lon="6.96947">
					<ele>105</ele>
					<time>0001-01-01T00:00:00Z</time>
				</trkpt>
				<trkpt lat="58.36152" lon="6.97044">
					<ele>100</ele>
					<time>0001-01-01T00:00:00Z</time>
				</trkpt>
				<trkpt lat="58.36146" lon="6.97065">
					<ele>99</ele>
					<time>0001-01-01T00:00:00Z</time>
				</trkpt>
				<trkpt lat="58.36078" lon="6.97336">
					<ele>91</ele>
					<time>0001-01-01T00:00:00Z</time>
				</trkpt>
				<trkpt lat="58.35994" lon="6.97444">
					<ele>86</ele>
					<time>0001-01-01T00:00:00Z</time>
				</trkpt>
				<trkpt lat="58.35935" lon="6.97408">
					<ele>85</ele>
					<time>0001-01-01T00:00:00Z</time>
				</trkpt>
				<trkpt lat="58.35767" lon="6.97177">
					<ele>84</ele>
					<time>0001-01-01T00:00:00Z</time>
				</trkpt>
				<trkpt lat="58.35631" lon="6.97055">
					<ele>83</ele>
					<time>0001-01-01T00:00:00Z</time>
				</trkpt>
				<trkpt lat="58.35449" lon="6.96936">
					<ele>83</ele>
					<time>0001-01-01T00:00:00Z</time>
				</trkpt>
				<trkpt lat="58.35316" lon="6.96817">
					<ele>82</ele>
					<time>0001-01-01T00:00:00Z</time>
				</trkpt>
				<trkpt lat="58.35179" lon="6.96651">
					<ele>80</ele>
					<time>0001-01-01T00:00:00Z</time>
				</trkpt>
				<trkpt lat="58.35135" lon="6.96636">
					<ele>82</ele>
					<time>0001-01-01T00:00:00Z</time>
				</trkpt>
				<trkpt lat="58.35055" lon="6.96667">
					<ele>83</ele>
					<time>0001-01-01T00:00:00Z</time>
				</trkpt>
				<trkpt lat="58.34957" lon="6.96847">
					<ele>81</ele>
					<time>0001-01-01T00:00:00Z</time>
				</trkpt>
				<trkpt lat="58.34887" lon="6.97077">
					<ele>80</ele>
					<time>0001-01-01T00:00:00Z</time>
				</trkpt>
				<trkpt lat="58.34837" lon="6.97206">
					<ele>80</ele>
					<time>0001-01-01T00:00:00Z</time>
				</trkpt>
				<trkpt lat="58.34802" lon="6.97254">
					<ele>80</ele>
					<time>0001-01-01T00:00:00Z</time>
				</trkpt>
				<trkpt lat="58.34742" lon="6.97305">
					<ele>79</ele>
					<time>0001-01-01T00:00:00Z</time>
				</trkpt>
				<trkpt lat="58.34663" lon="6.97338">
					<ele>78</ele>
					<time>0001-01-01T00:00:00Z</time>
				</trkpt>
				<trkpt lat="58.34609" lon="6.97276">
					<ele>78</ele>
					<time>0001-01-01T00:00:00Z</time>
				</trkpt>
				<trkpt lat="58.34545" lon="6.97222">
					<ele>78</ele>
					<time>0001-01-01T00:00:00Z</time>
				</trkpt>
				<trkpt lat="58.34528" lon="6.97239">
					<ele>78</ele>
					<time>0001-01-01T00:00:00Z</time>
				</trkpt>
				<trkpt lat="58.34494" lon="6.97278">
					<ele>78</ele>
					<time>0001-01-01T00:00:00Z</time>
				</trkpt>
				<trkpt lat="58.34420" lon="6.97260">
					<ele>78</ele>
					<time>0001-01-01T00:00:00Z</time>
				</trkpt>
				<trkpt lat="58.34259" lon="6.96991">
					<ele>77</ele>
					<time>0001-01-01T00:00:00Z</time>
				</trkpt>
				<trkpt lat="58.34103" lon="6.96631">
					<ele>75</ele>
					<time>0001-01-01T00:00:00Z</time>
				</trkpt>
				<trkpt lat="58.33983" lon="6.96391">
					<ele>70</ele>
					<time>0001-01-01T00:00:00Z</time>
				</trkpt>
				<trkpt lat="58.33932" lon="6.96338">
					<ele>69</ele>
					<time>0001-01-01T00:00:00Z</time>
				</trkpt>
				<trkpt lat="58.33816" lon="6.96312">
					<ele>66</ele>
					<time>0001-01-01T00:00:00Z</time>
				</trkpt>
				<trkpt lat="58.33689" lon="6.96225">
					<ele>64</ele>
					<time>0001-01-01T00:00:00Z</time>
				</trkpt>
				<trkpt lat="58.33650" lon="6.96166">
					<ele>63</ele>
					<time>0001-01-01T00:00:00Z</time>
				</trkpt>
				<trkpt lat="58.33613" lon="6.96105">
					<ele>61</ele>
					<time>0001-01-01T00:00:00Z</time>
				</trkpt>
				<trkpt lat="58.33488" lon="6.96031">
					<ele>57</ele>
					<time>0001-01-01T00:00:00Z</time>
				</trkpt>
				<trkpt lat="58.33385" lon="6.96075">
					<ele>54</ele>
					<time>0001-01-01T00:00:00Z</time>
				</trkpt>
				<trkpt lat="58.33311" lon="6.96071">
					<ele>51</ele>
					<time>0001-01-01T00:00:00Z</time>
				</trkpt>
				<trkpt lat="58.33215" lon="6.95999">
					<ele>49</ele>
					<time>0001-01-01T00:00:00Z</time>
				</trkpt>
				<trkpt lat="58.33075" lon="6.95945">
					<ele>48</ele>
					<time>0001-01-01T00:00:00Z</time>
				</trkpt>
				<trkpt lat="58.33008" lon="6.95995">
					<ele>46</ele>
					<time>0001-01-01T00:00:00Z</time>
				</trkpt>
				<trkpt lat="58.32972" lon="6.96059">
					<ele>45</ele>
					<time>0001-01-01T00:00:00Z</time>
				</trkpt>
				<trkpt lat="58.32951" lon="6.96082">
					<ele>44</ele>
					<time>0001-01-01T00:00:00Z</time>
				</trkpt>
				<trkpt lat="58.32853" lon="6.96096">
					<ele>43</ele>
					<time>0001-01-01T00:00:00Z</time>
				</trkpt>
				<trkpt lat="58.32727" lon="6.96021">
					<ele>41</ele>
					<time>0001-01-01T00:00:00Z</time>
				</trkpt>
				<trkpt lat="58.32656" lon="6.96054">
					<ele>40</ele>
					<time>0001-01-01T00:00:00Z</time>
				</trkpt>
				<trkpt lat="58.32595" lon="6.96137">
					<ele>35</ele>
					<time>0001-01-01T00:00:00Z</time>
				</trkpt>
				<trkpt lat="58.32469" lon="6.96223">
					<ele>31</ele>
					<time>0001-01-01T00:00:00Z</time>
				</trkpt>
				<trkpt lat="58.32290" lon="6.96240">
					<ele>27</ele>
					<time>0001-01-01T00:00:00Z</time>
				</trkpt>
				<trkpt lat="58.32120" lon="6.96189">
					<ele>17</ele>
					<time>0001-01-01T00:00:00Z</time>
				</trkpt>
				<trkpt lat="58.31939" lon="6.96009">
					<ele>8</ele>
					<time>0001-01-01T00:00:00Z</time>
				</trkpt>
				<trkpt lat="58.31804" lon="6.95940">
					<ele>7</ele>
					<time>0001-01-01T00:00:00Z</time>
				</trkpt>
				<trkpt lat="58.31734" lon="6.95990">
					<ele>4</ele>
					<time>0001-01-01T00:00:00Z</time>
				</trkpt>
				<trkpt lat="58.31628" lon="6.96221">
					<ele>3</ele>
					<time>0001-01-01T00:00:00Z</time>
				</trkpt>
				<trkpt lat="58.31542" lon="6.96325">
					<ele>4</ele>
					<time>0001-01-01T00:00:00Z</time>
				</trkpt>
				<trkpt lat="58.31521" lon="6.96345">
					<ele>4</ele>
					<time>0001-01-01T00:00:00Z</time>
				</trkpt>
				<trkpt lat="58.31502" lon="6.96350">
					<ele>3</ele>
					<time>0001-01-01T00:00:00Z</time>
				</trkpt>
				<trkpt lat="58.31470" lon="6.96379">
					<ele>5</ele>
					<time>0001-01-01T00:00:00Z</time>
				</trkpt>
				<trkpt lat="58.31457" lon="6.96373">
					<ele>7</ele>
					<time>0001-01-01T00:00:00Z</time>
				</trkpt>
				<trkpt lat="58.31461" lon="6.96356">
					<ele>8</ele>
					<time>0001-01-01T00:00:00Z</time>
				</trkpt>
				<trkpt lat="58.31460" lon="6.96358">
					<ele>-2</ele>
					<time>0001-01-01T00:00:00Z</time>
				</trkpt>
				<trkpt lat="58.31457" lon="6.96365">
					<ele>12</ele>
					<time>0001-01-01T00:00:00Z</time>
				</trkpt>
				<trkpt lat="58.31455" lon="6.96365">
					<ele>18</ele>
					<time>0001-01-01T00:00:00Z</time>
				</trkpt>
				<trkpt lat="58.31458" lon="6.96369">
					<ele>12</ele>
					<time>0001-01-01T00:00:00Z</time>
				</trkpt>
				<trkpt lat="58.31458" lon="6.96369">
					<ele>12</ele>
					<time>0001-01-01T00:00:00Z</time>
				</trkpt>
				<trkpt lat="58.31470" lon="6.96358">
					<ele>7</ele>
					<time>0001-01-01T00:00:00Z</time>
				</trkpt>
				<trkpt lat="58.31464" lon="6.96367">
					<ele>8</ele>
					<time>0001-01-01T00:00:00Z</time>
				</trkpt>
				<trkpt lat="58.31462" lon="6.96368">
					<ele>8</ele>
					<time>0001-01-01T00:00:00Z</time>
				</trkpt>
				<trkpt lat="58.31464" lon="6.96378">
					<ele>7</ele>
					<time>0001-01-01T00:00:00Z</time>
				</trkpt>
				<trkpt lat="58.31484" lon="6.96364">
					<ele>6</ele>
					<time>0001-01-01T00:00:00Z</time>
				</trkpt>
				<trkpt lat="58.31522" lon="6.96349">
					<ele>6</ele>
					<time>0001-01-01T00:00:00Z</time>
				</trkpt>
				<trkpt lat="58.31593" lon="6.96282">
					<ele>5</ele>
					<time>0001-01-01T00:00:00Z</time>
				</trkpt>
				<trkpt lat="58.31598" lon="6.96277">
					<ele>5</ele>
					<time>0001-01-01T00:00:00Z</time>
				</trkpt>
				<trkpt lat="58.31610" lon="6.96258">
					<ele>5</ele>
					<time>0001-01-01T00:00:00Z</time>
				</trkpt>
				<trkpt lat="58.31639" lon="6.96261">
					<ele>5</ele>
					<time>0001-01-01T00:00:00Z</time>
				</trkpt>
				<trkpt lat="58.31661" lon="6.96290">
					<ele>6</ele>
					<time>0001-01-01T00:00:00Z</time>
				</trkpt>
				<trkpt lat="58.31694" lon="6.96416">
					<ele>9</ele>
					<time>0001-01-01T00:00:00Z</time>
				</trkpt>
				<trkpt lat="58.31731" lon="6.96503">
					<ele>14</ele>
					<time>0001-01-01T00:00:00Z</time>
				</trkpt>
				<trkpt lat="58.31737" lon="6.96519">
					<ele>15</ele>
					<time>0001-01-01T00:00:00Z</time>
				</trkpt>
				<trkpt lat="58.31749" lon="6.96589">
					<ele>16</ele>
					<time>0001-01-01T00:00:00Z</time>
				</trkpt>
				<trkpt lat="58.31827" lon="6.96774">
					<ele>18</ele>
					<time>0001-01-01T00:00:00Z</time>
				</trkpt>
				<trkpt lat="58.31902" lon="6.96964">
					<ele>18</ele>
					<time>0001-01-01T00:00:00Z</time>
				</trkpt>
				<trkpt lat="58.31980" lon="6.97160">
					<ele>20</ele>
					<time>0001-01-01T00:00:00Z</time>
				</trkpt>
				<trkpt lat="58.32063" lon="6.97381">
					<ele>26</ele>
					<time>0001-01-01T00:00:00Z</time>
				</trkpt>
				<trkpt lat="58.32162" lon="6.97634">
					<ele>31</ele>
					<time>0001-01-01T00:00:00Z</time>
				</trkpt>
				<trkpt lat="58.32218" lon="6.97779">
					<ele>35</ele>
					<time>0001-01-01T00:00:00Z</time>
				</trkpt>
				<trkpt lat="58.32242" lon="6.97993">
					<ele>39</ele>
					<time>0001-01-01T00:00:00Z</time>
				</trkpt>
				<trkpt lat="58.32210" lon="6.98158">
					<ele>44</ele>
					<time>0001-01-01T00:00:00Z</time>
				</trkpt>
				<trkpt lat="58.32132" lon="6.98270">
					<ele>51</ele>
					<time>0001-01-01T00:00:00Z</time>
				</trkpt>
				<trkpt lat="58.32046" lon="6.98289">
					<ele>56</ele>
					<time>0001-01-01T00:00:00Z</time>
				</trkpt>
				<trkpt lat="58.31966" lon="6.98228">
					<ele>61</ele>
					<time>0001-01-01T00:00:00Z</time>
				</trkpt>
				<trkpt lat="58.31876" lon="6.98113">
					<ele>68</ele>
					<time>0001-01-01T00:00:00Z</time>
				</trkpt>
				<trkpt lat="58.31790" lon="6.98033">
					<ele>76</ele>
					<time>0001-01-01T00:00:00Z</time>
				</trkpt>
				<trkpt lat="58.31701" lon="6.97956">
					<ele>83</ele>
					<time>0001-01-01T00:00:00Z</time>
				</trkpt>
				<trkpt lat="58.31604" lon="6.97866">
					<ele>90</ele>
					<time>0001-01-01T00:00:00Z</time>
				</trkpt>
				<trkpt lat="58.31530" lon="6.97758">
					<ele>97</ele>
					<time>0001-01-01T00:00:00Z</time>
				</trkpt>
				<trkpt lat="58.31461" lon="6.97619">
					<ele>105</ele>
					<time>0001-01-01T00:00:00Z</time>
				</trkpt>
				<trkpt lat="58.31420" lon="6.97535">
					<ele>108</ele>
					<time>0001-01-01T00:00:00Z</time>
				</trkpt>
				<trkpt lat="58.31393" lon="6.97473">
					<ele>112</ele>
					<time>0001-01-01T00:00:00Z</time>
				</trkpt>
				<trkpt lat="58.31341" lon="6.97365">
					<ele>117</ele>
					<time>0001-01-01T00:00:00Z</time>
				</trkpt>
				<trkpt lat="58.31288" lon="6.97342">
					<ele>122</ele>
					<time>0001-01-01T00:00:00Z</time>
				</trkpt>
				<trkpt lat="58.31203" lon="6.97316">
					<ele>128</ele>
					<time>0001-01-01T00:00:00Z</time>
				</trkpt>
				<trkpt lat="58.31110" lon="6.97244">
					<ele>136</ele>
					<time>0001-01-01T00:00:00Z</time>
				</trkpt>
				<trkpt lat="58.31038" lon="6.97233">
					<ele>142</ele>
					<time>0001-01-01T00:00:00Z</time>
				</trkpt>
				<trkpt lat="58.30958" lon="6.97250">
					<ele>148</ele>
					<time>0001-01-01T00:00:00Z</time>
				</trkpt>
				<trkpt lat="58.30872" lon="6.97253">
					<ele>155</ele>
					<time>0001-01-01T00:00:00Z</time>
				</trkpt>
				<trkpt lat="58.30837" lon="6.97169">
					<ele>160</ele>
					<time>0001-01-01T00:00:00Z</time>
				</trkpt>
				<trkpt lat="58.30827" lon="6.97107">
					<ele>163</ele>
					<time>0001-01-01T00:00:00Z</time>
				</trkpt>
				<trkpt lat="58.30770" lon="6.96988">
					<ele>170</ele>
					<time>0001-01-01T00:00:00Z</time>
				</trkpt>
				<trkpt lat="58.30766" lon="6.96983">
					<ele>170</ele>
					<time>0001-01-01T00:00:00Z</time>
				</trkpt>
				<trkpt lat="58.30685" lon="6.96857">
					<ele>179</ele>
					<time>0001-01-01T00:00:00Z</time>
				</trkpt>
				<trkpt lat="58.30629" lon="6.96863">
					<ele>184</ele>
					<time>0001-01-01T00:00:00Z</time>
				</trkpt>
				<trkpt lat="58.30593" lon="6.96935">
					<ele>189</ele>
					<time>0001-01-01T00:00:00Z</time>
				</trkpt>
				<trkpt lat="58.30571" lon="6.97099">
					<ele>196</ele>
					<time>0001-01-01T00:00:00Z</time>
				</trkpt>
				<trkpt lat="58.30580" lon="6.97284">
					<ele>203</ele>
					<time>0001-01-01T00:00:00Z</time>
				</trkpt>
				<trkpt lat="58.30642" lon="6.97474">
					<ele>207</ele>
					<time>0001-01-01T00:00:00Z</time>
				</trkpt>
				<trkpt lat="58.30671" lon="6.97638">
					<ele>213</ele>
					<time>0001-01-01T00:00:00Z</time>
				</trkpt>
				<trkpt lat="58.30676" lon="6.97948">
					<ele>226</ele>
					<time>0001-01-01T00:00:00Z</time>
				</trkpt>
				<trkpt lat="58.30679" lon="6.98197">
					<ele>232</ele>
					<time>0001-01-01T00:00:00Z</time>
				</trkpt>
				<trkpt lat="58.30699" lon="6.98446">
					<ele>239</ele>
					<time>0001-01-01T00:00:00Z</time>
				</trkpt>
				<trkpt lat="58.30732" lon="6.98642">
					<ele>243</ele>
					<time>0001-01-01T00:00:00Z</time>
				</trkpt>
				<trkpt lat="58.30763" lon="6.98851">
					<ele>247</ele>
					<time>0001-01-01T00:00:00Z</time>
				</trkpt>
				<trkpt lat="58.30776" lon="6.98918">
					<ele>249</ele>
					<time>0001-01-01T00:00:00Z</time>
				</trkpt>
				<trkpt lat="58.30794" lon="6.99025">
					<ele>254</ele>
					<time>0001-01-01T00:00:00Z</time>
				</trkpt>
				<trkpt lat="58.30803" lon="6.99051">
					<ele>255</ele>
					<time>0001-01-01T00:00:00Z</time>
				</trkpt>
				<trkpt lat="58.30813" lon="6.99075">
					<ele>258</ele>
					<time>0001-01-01T00:00:00Z</time>
				</trkpt>
				<trkpt lat="58.30859" lon="6.99258">
					<ele>266</ele>
					<time>0001-01-01T00:00:00Z</time>
				</trkpt>
				<trkpt lat="58.30896" lon="6.99450">
					<ele>269</ele>
					<time>0001-01-01T00:00:00Z</time>
				</trkpt>
				<trkpt lat="58.30958" lon="6.99632">
					<ele>274</ele>
					<time>0001-01-01T00:00:00Z</time>
				</trkpt>
				<trkpt lat="58.30960" lon="6.99642">
					<ele>274</ele>
					<time>0001-01-01T00:00:00Z</time>
				</trkpt>
				<trkpt lat="58.30963" lon="6.99679">
					<ele>274</ele>
					<time>0001-01-01T00:00:00Z</time>
				</trkpt>
				<trkpt lat="58.30962" lon="6.99706">
					<ele>274</ele>
					<time>0001-01-01T00:00:00Z</time>
				</trkpt>
				<trkpt lat="58.30937" lon="6.99898">
					<ele>274</ele>
					<time>0001-01-01T00:00:00Z</time>
				</trkpt>
				<trkpt lat="58.30967" lon="7.00101">
					<ele>275</ele>
					<time>0001-01-01T00:00:00Z</time>
				</trkpt>
				<trkpt lat="58.30969" lon="7.00304">
					<ele>274</ele>
					<time>0001-01-01T00:00:00Z</time>
				</trkpt>
				<trkpt lat="58.30958" lon="7.00457">
					<ele>273</ele>
					<time>0001-01-01T00:00:00Z</time>
				</trkpt>
				<trkpt lat="58.30901" lon="7.00525">
					<ele>273</ele>
					<time>0001-01-01T00:00:00Z</time>
				</trkpt>
				<trkpt lat="58.30874" lon="7.00513">
					<ele>274</ele>
					<time>0001-01-01T00:00:00Z</time>
				</trkpt>
				<trkpt lat="58.30710" lon="7.00432">
					<ele>274</ele>
					<time>0001-01-01T00:00:00Z</time>
				</trkpt>
				<trkpt lat="58.30579" lon="7.00454">
					<ele>278</ele>
					<time>0001-01-01T00:00:00Z</time>
				</trkpt>
				<trkpt lat="58.30483" lon="7.00444">
					<ele>276</ele>
					<time>0001-01-01T00:00:00Z</time>
				</trkpt>
				<trkpt lat="58.30394" lon="7.00498">
					<ele>280</ele>
					<time>0001-01-01T00:00:00Z</time>
				</trkpt>
				<trkpt lat="58.30366" lon="7.00512">
					<ele>280</ele>
					<time>0001-01-01T00:00:00Z</time>
				</trkpt>
				<trkpt lat="58.30284" lon="7.00623">
					<ele>285</ele>
					<time>0001-01-01T00:00:00Z</time>
				</trkpt>
				<trkpt lat="58.30215" lon="7.00702">
					<ele>289</ele>
					<time>0001-01-01T00:00:00Z</time>
				</trkpt>
				<trkpt lat="58.30126" lon="7.00728">
					<ele>299</ele>
					<time>0001-01-01T00:00:00Z</time>
				</trkpt>
				<trkpt lat="58.30041" lon="7.00744">
					<ele>305</ele>
					<time>0001-01-01T00:00:00Z</time>
				</trkpt>
				<trkpt lat="58.29973" lon="7.00828">
					<ele>311</ele>
					<time>0001-01-01T00:00:00Z</time>
				</trkpt>
				<trkpt lat="58.29954" lon="7.00971">
					<ele>318</ele>
					<time>0001-01-01T00:00:00Z</time>
				</trkpt>
				<trkpt lat="58.29944" lon="7.01152">
					<ele>315</ele>
					<time>0001-01-01T00:00:00Z</time>
				</trkpt>
				<trkpt lat="58.29876" lon="7.01372">
					<ele>308</ele>
					<time>0001-01-01T00:00:00Z</time>
				</trkpt>
				<trkpt lat="58.29792" lon="7.01683">
					<ele>300</ele>
					<time>0001-01-01T00:00:00Z</time>
				</trkpt>
				<trkpt lat="58.29737" lon="7.01893">
					<ele>297</ele>
					<time>0001-01-01T00:00:00Z</time>
				</trkpt>
				<trkpt lat="58.29713" lon="7.02135">
					<ele>296</ele>
					<time>0001-01-01T00:00:00Z</time>
				</trkpt>
				<trkpt lat="58.29671" lon="7.02275">
					<ele>295</ele>
					<time>0001-01-01T00:00:00Z</time>
				</trkpt>
				<trkpt lat="58.29558" lon="7.02377">
					<ele>297</ele>
					<time>0001-01-01T00:00:00Z</time>
				</trkpt>
				<trkpt lat="58.29342" lon="7.02502">
					<ele>299</ele>
					<time>0001-01-01T00:00:00Z</time>
				</trkpt>
				<trkpt lat="58.29225" lon="7.02557">
					<ele>299</ele>
					<time>0001-01-01T00:00:00Z</time>
				</trkpt>
				<trkpt lat="58.29008" lon="7.02746">
					<ele>302</ele>
					<time>0001-01-01T00:00:00Z</time>
				</trkpt>
				<trkpt lat="58.28916" lon="7.02782">
					<ele>304</ele>
					<time>0001-01-01T00:00:00Z</time>
				</trkpt>
				<trkpt lat="58.28810" lon="7.02706">
					<ele>307</ele>
					<time>0001-01-01T00:00:00Z</time>
				</trkpt>
				<trkpt lat="58.28709" lon="7.02636">
					<ele>310</ele>
					<time>0001-01-01T00:00:00Z</time>
				</trkpt>
				<trkpt lat="58.28568" lon="7.02581">
					<ele>314</ele>
					<time>0001-01-01T00:00:00Z</time>
				</trkpt>
				<trkpt lat="58.28410" lon="7.02544">
					<ele>315</ele>
					<time>0001-01-01T00:00:00Z</time>
				</trkpt>
				<trkpt lat="58.28363" lon="7.02481">
					<ele>311</ele>
					<time>0001-01-01T00:00:00Z</time>
				</trkpt>
				<trkpt lat="58.28291" lon="7.02449">
					<ele>305</ele>
					<time>0001-01-01T00:00:00Z</time>
				</trkpt>
				<trkpt lat="58.28278" lon="7.02505">
					<ele>304</ele>
					<time>0001-01-01T00:00:00Z</time>
				</trkpt>
				<trkpt lat="58.28273" lon="7.02546">
					<ele>303</ele>
					<time>0001-01-01T00:00:00Z</time>
				</trkpt>
				<trkpt lat="58.28210" lon="7.02710">
					<ele>299</ele>
					<time>0001-01-01T00:00:00Z</time>
				</trkpt>
				<trkpt lat="58.28154" lon="7.02733">
					<ele>298</ele>
					<time>0001-01-01T00:00:00Z</time>
				</trkpt>
				<trkpt lat="58.28098" lon="7.02727">
					<ele>297</ele>
					<time>0001-01-01T00:00:00Z</time>
				</trkpt>
				<trkpt lat="58.28045" lon="7.02669">
					<ele>295</ele>
					<time>0001-01-01T00:00:00Z</time>
				</trkpt>
				<trkpt lat="58.28031" lon="7.02639">
					<ele>295</ele>
					<time>0001-01-01T00:00:00Z</time>
				</trkpt>
				<trkpt lat="58.27962" lon="7.02602">
					<ele>294</ele>
					<time>0001-01-01T00:00:00Z</time>
				</trkpt>
				<trkpt lat="58.27931" lon="7.02608">
					<ele>294</ele>
					<time>0001-01-01T00:00:00Z</time>
				</trkpt>
				<trkpt lat="58.27889" lon="7.02659">
					<ele>294</ele>
					<time>0001-01-01T00:00:00Z</time>
				</trkpt>
				<trkpt lat="58.27870" lon="7.02703">
					<ele>294</ele>
					<time>0001-01-01T00:00:00Z</time>
				</trkpt>
				<trkpt lat="58.27796" lon="7.02738">
					<ele>293</ele>
					<time>0001-01-01T00:00:00Z</time>
				</trkpt>
				<trkpt lat="58.27745" lon="7.02638">
					<ele>288</ele>
					<time>0001-01-01T00:00:00Z</time>
				</trkpt>
				<trkpt lat="58.27731" lon="7.02575">
					<ele>285</ele>
					<time>0001-01-01T00:00:00Z</time>
				</trkpt>
				<trkpt lat="58.27661" lon="7.02486">
					<ele>277</ele>
					<time>0001-01-01T00:00:00Z</time>
				</trkpt>
				<trkpt lat="58.27609" lon="7.02470">
					<ele>274</ele>
					<time>0001-01-01T00:00:00Z</time>
				</trkpt>
				<trkpt lat="58.27420" lon="7.02340">
					<ele>267</ele>
					<time>0001-01-01T00:00:00Z</time>
				</trkpt>
				<trkpt lat="58.27375" lon="7.02237">
					<ele>262</ele>
					<time>0001-01-01T00:00:00Z</time>
				</trkpt>
				<trkpt lat="58.27360" lon="7.02174">
					<ele>259</ele>
					<time>0001-01-01T00:00:00Z</time>
				</trkpt>
				<trkpt lat="58.27320" lon="7.02121">
					<ele>255</ele>
					<time>0001-01-01T00:00:00Z</time>
				</trkpt>
				<trkpt lat="58.27211" lon="7.01977">
					<ele>249</ele>
					<time>0001-01-01T00:00:00Z</time>
				</trkpt>
				<trkpt lat="58.27192" lon="7.01954">
					<ele>250</ele>
					<time>0001-01-01T00:00:00Z</time>
				</trkpt>
				<trkpt lat="58.27142" lon="7.01802">
					<ele>253</ele>
					<time>0001-01-01T00:00:00Z</time>
				</trkpt>
				<trkpt lat="58.27089" lon="7.01555">
					<ele>251</ele>
					<time>0001-01-01T00:00:00Z</time>
				</trkpt>
				<trkpt lat="58.27007" lon="7.01472">
					<ele>248</ele>
					<time>0001-01-01T00:00:00Z</time>
				</trkpt>
				<trkpt lat="58.26888" lon="7.01489">
					<ele>247</ele>
					<time>0001-01-01T00:00:00Z</time>
				</trkpt>
				<trkpt lat="58.26839" lon="7.01546">
					<ele>247</ele>
					<time>0001-01-01T00:00:00Z</time>
				</trkpt>
				<trkpt lat="58.26786" lon="7.01652">
					<ele>247</ele>
					<time>0001-01-01T00:00:00Z</time>
				</trkpt>
				<trkpt lat="58.26705" lon="7.01969">
					<ele>251</ele>
					<time>0001-01-01T00:00:00Z</time>
				</trkpt>
				<trkpt lat="58.26700" lon="7.01981">
					<ele>250</ele>
					<time>0001-01-01T00:00:00Z</time>
				</trkpt>
				<trkpt lat="58.26477" lon="7.02100">
					<ele>247</ele>
					<time>0001-01-01T00:00:00Z</time>
				</trkpt>
				<trkpt lat="58.26330" lon="7.02139">
					<ele>250</ele>
					<time>0001-01-01T00:00:00Z</time>
				</trkpt>
				<trkpt lat="58.26173" lon="7.02180">
					<ele>256</ele>
					<time>0001-01-01T00:00:00Z</time>
				</trkpt>
				<trkpt lat="58.26119" lon="7.02203">
					<ele>256</ele>
					<time>0001-01-01T00:00:00Z</time>
				</trkpt>
				<trkpt lat="58.25979" lon="7.02364">
					<ele>253</ele>
					<time>0001-01-01T00:00:00Z</time>
				</trkpt>
				<trkpt lat="58.25959" lon="7.02379">
					<ele>253</ele>
					<time>0001-01-01T00:00:00Z</time>
				</trkpt>
				<trkpt lat="58.25799" lon="7.02388">
					<ele>247</ele>
					<time>0001-01-01T00:00:00Z</time>
				</trkpt>
				<trkpt lat="58.25612" lon="7.02271">
					<ele>243</ele>
					<time>0001-01-01T00:00:00Z</time>
				</trkpt>
				<trkpt lat="58.25479" lon="7.02184">
					<ele>242</ele>
					<time>0001-01-01T00:00:00Z</time>
				</trkpt>
				<trkpt lat="58.25321" lon="7.02048">
					<ele>241</ele>
					<time>0001-01-01T00:00:00Z</time>
				</trkpt>
				<trkpt lat="58.25143" lon="7.02017">
					<ele>241</ele>
					<time>0001-01-01T00:00:00Z</time>
				</trkpt>
				<trkpt lat="58.25133" lon="7.02013">
					<ele>241</ele>
					<time>0001-01-01T00:00:00Z</time>
				</trkpt>
				<trkpt lat="58.24942" lon="7.01867">
					<ele>239</ele>
					<time>0001-01-01T00:00:00Z</time>
				</trkpt>
				<trkpt lat="58.24736" lon="7.01728">
					<ele>239</ele>
					<time>0001-01-01T00:00:00Z</time>
				</trkpt>
				<trkpt lat="58.24556" lon="7.01707">
					<ele>240</ele>
					<time>0001-01-01T00:00:00Z</time>
				</trkpt>
				<trkpt lat="58.24335" lon="7.01683">
					<ele>241</ele>
					<time>0001-01-01T00:00:00Z</time>
				</trkpt>
				<trkpt lat="58.24162" lon="7.01602">
					<ele>239</ele>
					<time>0001-01-01T00:00:00Z</time>
				</trkpt>
				<trkpt lat="58.23915" lon="7.01485">
					<ele>240</ele>
					<time>0001-01-01T00:00:00Z</time>
				</trkpt>
				<trkpt lat="58.23718" lon="7.01442">
					<ele>239</ele>
					<time>0001-01-01T00:00:00Z</time>
				</trkpt>
				<trkpt lat="58.23558" lon="7.01368">
					<ele>239</ele>
					<time>0001-01-01T00:00:00Z</time>
				</trkpt>
				<trkpt lat="58.23376" lon="7.01311">
					<ele>239</ele>
					<time>0001-01-01T00:00:00Z</time>
				</trkpt>
				<trkpt lat="58.23170" lon="7.01291">
					<ele>237</ele>
					<time>0001-01-01T00:00:00Z</time>
				</trkpt>
				<trkpt lat="58.22930" lon="7.01265">
					<ele>233</ele>
					<time>0001-01-01T00:00:00Z</time>
				</trkpt>
				<trkpt lat="58.22752" lon="7.01174">
					<ele>235</ele>
					<time>0001-01-01T00:00:00Z</time>
				</trkpt>
				<trkpt lat="58.22662" lon="7.01100">
					<ele>234</ele>
					<time>0001-01-01T00:00:00Z</time>
				</trkpt>
				<trkpt lat="58.22526" lon="7.00906">
					<ele>219</ele>
					<time>0001-01-01T00:00:00Z</time>
				</trkpt>
				<trkpt lat="58.22378" lon="7.00634">
					<ele>208</ele>
					<time>0001-01-01T00:00:00Z</time>
				</trkpt>
				<trkpt lat="58.22369" lon="7.00620">
					<ele>208</ele>
					<time>0001-01-01T00:00:00Z</time>
				</trkpt>
				<trkpt lat="58.22302" lon="7.00625">
					<ele>210</ele>
					<time>0001-01-01T00:00:00Z</time>
				</trkpt>
				<trkpt lat="58.22274" lon="7.00728">
					<ele>214</ele>
					<time>0001-01-01T00:00:00Z</time>
				</trkpt>
				<trkpt lat="58.22263" lon="7.00929">
					<ele>216</ele>
					<time>0001-01-01T00:00:00Z</time>
				</trkpt>
				<trkpt lat="58.22230" lon="7.01089">
					<ele>218</ele>
					<time>0001-01-01T00:00:00Z</time>
				</trkpt>
				<trkpt lat="58.22177" lon="7.01199">
					<ele>221</ele>
					<time>0001-01-01T00:00:00Z</time>
				</trkpt>
				<trkpt lat="58.22146" lon="7.01239">
					<ele>226</ele>
					<time>0001-01-01T00:00:00Z</time>
				</trkpt>
				<trkpt lat="58.22108" lon="7.01257">
					<ele>227</ele>
					<time>0001-01-01T00:00:00Z</time>
				</trkpt>
				<trkpt lat="58.22051" lon="7.01226">
					<ele>228</ele>
					<time>0001-01-01T00:00:00Z</time>
				</trkpt>
				<trkpt lat="58.22047" lon="7.01223">
					<ele>227</ele>
					<time>0001-01-01T00:00:00Z</time>
				</trkpt>
				<trkpt lat="58.22040" lon="7.01223">
					<ele>227</ele>
					<time>0001-01-01T00:00:00Z</time>
				</trkpt>
				<trkpt lat="58.22027" lon="7.01257">
					<ele>226</ele>
					<time>0001-01-01T00:00:00Z</time>
				</trkpt>
				<trkpt lat="58.21975" lon="7.01489">
					<ele>219</ele>
					<time>0001-01-01T00:00:00Z</time>
				</trkpt>
				<trkpt lat="58.21875" lon="7.01705">
					<ele>215</ele>
					<time>0001-01-01T00:00:00Z</time>
				</trkpt>
				<trkpt lat="58.21738" lon="7.01937">
					<ele>211</ele>
					<time>0001-01-01T00:00:00Z</time>
				</trkpt>
				<trkpt lat="58.21514" lon="7.02286">
					<ele>203</ele>
					<time>0001-01-01T00:00:00Z</time>
				</trkpt>
				<trkpt lat="58.21295" lon="7.02611">
					<ele>196</ele>
					<time>0001-01-01T00:00:00Z</time>
				</trkpt>
				<trkpt lat="58.21065" lon="7.02848">
					<ele>192</ele>
					<time>0001-01-01T00:00:00Z</time>
				</trkpt>
				<trkpt lat="58.20866" lon="7.03050">
					<ele>188</ele>
					<time>0001-01-01T00:00:00Z</time>
				</trkpt>
				<trkpt lat="58.20627" lon="7.03293">
					<ele>184</ele>
					<time>0001-01-01T00:00:00Z</time>
				</trkpt>
				<trkpt lat="58.20469" lon="7.03453">
					<ele>182</ele>
					<time>0001-01-01T00:00:00Z</time>
				</trkpt>
				<trkpt lat="58.20314" lon="7.03484">
					<ele>180</ele>
					<time>0001-01-01T00:00:00Z</time>
				</trkpt>
				<trkpt lat="58.20096" lon="7.03468">
					<ele>176</ele>
					<time>0001-01-01T00:00:00Z</time>
				</trkpt>
				<trkpt lat="58.19720" lon="7.03711">
					<ele>171</ele>
					<time>0001-01-01T00:00:00Z</time>
				</trkpt>
				<trkpt lat="58.19714" lon="7.03792">
					<ele>167</ele>
					<time>0001-01-01T00:00:00Z</time>
				</trkpt>
				<trkpt lat="58.19699" lon="7.04232">
					<ele>154</ele>
					<time>0001-01-01T00:00:00Z</time>
				</trkpt>
				<trkpt lat="58.19619" lon="7.04422">
					<ele>147</ele>
					<time>0001-01-01T00:00:00Z</time>
				</trkpt>
				<trkpt lat="58.19504" lon="7.04504">
					<ele>138</ele>
					<time>0001-01-01T00:00:00Z</time>
				</trkpt>
				<trkpt lat="58.19196" lon="7.04578">
					<ele>125</ele>
					<time>0001-01-01T00:00:00Z</time>
				</trkpt>
				<trkpt lat="58.19022" lon="7.04599">
					<ele>124</ele>
					<time>0001-01-01T00:00:00Z</time>
				</trkpt>
				<trkpt lat="58.18829" lon="7.04568">
					<ele>123</ele>
					<time>0001-01-01T00:00:00Z</time>
				</trkpt>
				<trkpt lat="58.18785" lon="7.04591">
					<ele>124</ele>
					<time>0001-01-01T00:00:00Z</time>
				</trkpt>
				<trkpt lat="58.18697" lon="7.04736">
					<ele>119</ele>
					<time>0001-01-01T00:00:00Z</time>
				</trkpt>
				<trkpt lat="58.18655" lon="7.04970">
					<ele>114</ele>
					<time>0001-01-01T00:00:00Z</time>
				</trkpt>
				<trkpt lat="58.18641" lon="7.05036">
					<ele>114</ele>
					<time>0001-01-01T00:00:00Z</time>
				</trkpt>
				<trkpt lat="58.18518" lon="7.05510">
					<ele>106</ele>
					<time>0001-01-01T00:00:00Z</time>
				</trkpt>
				<trkpt lat="58.18398" lon="7.05787">
					<ele>95</ele>
					<time>0001-01-01T00:00:00Z</time>
				</trkpt>
				<trkpt lat="58.18251" lon="7.05959">
					<ele>89</ele>
					<time>0001-01-01T00:00:00Z</time>
				</trkpt>
				<trkpt lat="58.18087" lon="7.06064">
					<ele>85</ele>
					<time>0001-01-01T00:00:00Z</time>
				</trkpt>
				<trkpt lat="58.17891" lon="7.06028">
					<ele>73</ele>
					<time>0001-01-01T00:00:00Z</time>
				</trkpt>
				<trkpt lat="58.17663" lon="7.05881">
					<ele>63</ele>
					<time>0001-01-01T00:00:00Z</time>
				</trkpt>
				<trkpt lat="58.17504" lon="7.05769">
					<ele>59</ele>
					<time>0001-01-01T00:00:00Z</time>
				</trkpt>
				<trkpt lat="58.17460" lon="7.05774">
					<ele>56</ele>
					<time>0001-01-01T00:00:00Z</time>
				</trkpt>
				<trkpt lat="58.17394" lon="7.05811">
					<ele>54</ele>
					<time>0001-01-01T00:00:00Z</time>
				</trkpt>
				<trkpt lat="58.17341" lon="7.05874">
					<ele>51</ele>
					<time>0001-01-01T00:00:00Z</time>
				</trkpt>
				<trkpt lat="58.17252" lon="7.06084">
					<ele>44</ele>
					<time>0001-01-01T00:00:00Z</time>
				</trkpt>
				<trkpt lat="58.17154" lon="7.06203">
					<ele>42</ele>
					<time>0001-01-01T00:00:00Z</time>
				</trkpt>
				<trkpt lat="58.17115" lon="7.06226">
					<ele>42</ele>
					<time>0001-01-01T00:00:00Z</time>
				</trkpt>
				<trkpt lat="58.17060" lon="7.06227">
					<ele>40</ele>
					<time>0001-01-01T00:00:00Z</time>
				</trkpt>
				<trkpt lat="58.17005" lon="7.06192">
					<ele>37</ele>
					<time>0001-01-01T00:00:00Z</time>
				</trkpt>
				<trkpt lat="58.16824" lon="7.05937">
					<ele>26</ele>
					<time>0001-01-01T00:00:00Z</time>
				</trkpt>
				<trkpt lat="58.16674" lon="7.05819">
					<ele>19</ele>
					<time>0001-01-01T00:00:00Z</time>
				</trkpt>
				<trkpt lat="58.16496" lon="7.05819">
					<ele>15</ele>
					<time>0001-01-01T00:00:00Z</time>
				</trkpt>
				<trkpt lat="58.16326" lon="7.05913">
					<ele>11</ele>
					<time>0001-01-01T00:00:00Z</time>
				</trkpt>
				<trkpt lat="58.16123" lon="7.06058">
					<ele>7</ele>
					<time>0001-01-01T00:00:00Z</time>
				</trkpt>
				<trkpt lat="58.16040" lon="7.06230">
					<ele>7</ele>
					<time>0001-01-01T00:00:00Z</time>
				</trkpt>
				<trkpt lat="58.16016" lon="7.06448">
					<ele>9</ele>
					<time>0001-01-01T00:00:00Z</time>
				</trkpt>
				<trkpt lat="58.16030" lon="7.06697">
					<ele>8</ele>
					<time>0001-01-01T00:00:00Z</time>
				</trkpt>
				<trkpt lat="58.15976" lon="7.06752">
					<ele>8</ele>
					<time>0001-01-01T00:00:00Z</time>
				</trkpt>
				<trkpt lat="58.15955" lon="7.06751">
					<ele>8</ele>
					<time>0001-01-01T00:00:00Z</time>
				</trkpt>
				<trkpt lat="58.15828" lon="7.06761">
					<ele>4</ele>
					<time>0001-01-01T00:00:00Z</time>
				</trkpt>
				<trkpt lat="58.15782" lon="7.06837">
					<ele>4</ele>
					<time>0001-01-01T00:00:00Z</time>
				</trkpt>
				<trkpt lat="58.15751" lon="7.06855">
					<ele>3</ele>
					<time>0001-01-01T00:00:00Z</time>
				</trkpt>
				<trkpt lat="58.15637" lon="7.06857">
					<ele>2</ele>
					<time>0001-01-01T00:00:00Z</time>
				</trkpt>
				<trkpt lat="58.15603" lon="7.06850">
					<ele>0</ele>
					<time>0001-01-01T00:00:00Z</time>
				</trkpt>
				<trkpt lat="58.15605" lon="7.06846">
					<ele>3</ele>
					<time>0001-01-01T00:00:00Z</time>
				</trkpt>
				<trkpt lat="58.15572" lon="7.06846">
					<ele>2</ele>
					<time>0001-01-01T00:00:00Z</time>
				</trkpt>
				<trkpt lat="58.15572" lon="7.06851">
					<ele>3</ele>
					<time>0001-01-01T00:00:00Z</time>
				</trkpt>
				<trkpt lat="58.15573" lon="7.06856">
					<ele>6</ele>
					<time>0001-01-01T00:00:00Z</time>
				</trkpt>
				<trkpt lat="58.15551" lon="7.06861">
					<ele>3</ele>
					<time>0001-01-01T00:00:00Z</time>
				</trkpt>
				<trkpt lat="58.15498" lon="7.06879">
					<ele>3</ele>
					<time>0001-01-01T00:00:00Z</time>
				</trkpt>
				<trkpt lat="58.15463" lon="7.06870">
					<ele>2</ele>
					<time>0001-01-01T00:00:00Z</time>
				</trkpt>
				<trkpt lat="58.15311" lon="7.06744">
					<ele>0</ele>
					<time>0001-01-01T00:00:00Z</time>
				</trkpt>
				<trkpt lat="58.15211" lon="7.06565">
					<ele>0</ele>
					<time>0001-01-01T00:00:00Z</time>
				</trkpt>
				<trkpt lat="58.15194" lon="7.06503">
					<ele>0</ele>
					<time>0001-01-01T00:00:00Z</time>
				</trkpt>
				<trkpt lat="58.15141" lon="7.06266">
					<ele>2</ele>
					<time>0001-01-01T00:00:00Z</time>
				</trkpt>
				<trkpt lat="58.15074" lon="7.06148">
					<ele>4</ele>
					<time>0001-01-01T00:00:00Z</time>
				</trkpt>
				<trkpt lat="58.14931" lon="7.06039">
					<ele>1</ele>
					<time>0001-01-01T00:00:00Z</time>
				</trkpt>
				<trkpt lat="58.14800" lon="7.06053">
					<ele>-4</ele>
					<time>0001-01-01T00:00:00Z</time>
				</trkpt>
				<trkpt lat="58.14790" lon="7.06054">
					<ele>-4</ele>
					<time>0001-01-01T00:00:00Z</time>
				</trkpt>
				<trkpt lat="58.14661" lon="7.05970">
					<ele>0</ele>
					<time>0001-01-01T00:00:00Z</time>
				</trkpt>
				<trkpt lat="58.14636" lon="7.05927">
					<ele>0</ele>
					<time>0001-01-01T00:00:00Z</time>
				</trkpt>
				<trkpt lat="58.14623" lon="7.05882">
					<ele>0</ele>
					<time>0001-01-01T00:00:00Z</time>
				</trkpt>
				<trkpt lat="58.14613" lon="7.05820">
					<ele>0</ele>
					<time>0001-01-01T00:00:00Z</time>
				</trkpt>
				<trkpt lat="58.14577" lon="7.05787">
					<ele>0</ele>
					<time>0001-01-01T00:00:00Z</time>
				</trkpt>
				<trkpt lat="58.14518" lon="7.05796">
					<ele>0</ele>
					<time>0001-01-01T00:00:00Z</time>
				</trkpt>
				<trkpt lat="58.14482" lon="7.05826">
					<ele>0</ele>
					<time>0001-01-01T00:00:00Z</time>
				</trkpt>
				<trkpt lat="58.14341" lon="7.06008">
					<ele>-1</ele>
					<time>0001-01-01T00:00:00Z</time>
				</trkpt>
				<trkpt lat="58.14135" lon="7.06223">
					<ele>0</ele>
					<time>0001-01-01T00:00:00Z</time>
				</trkpt>
				<trkpt lat="58.13893" lon="7.06476">
					<ele>3</ele>
					<time>0001-01-01T00:00:00Z</time>
				</trkpt>
				<trkpt lat="58.13881" lon="7.06485">
					<ele>3</ele>
					<time>0001-01-01T00:00:00Z</time>
				</trkpt>
				<trkpt lat="58.13859" lon="7.06463">
					<ele>3</ele>
					<time>0001-01-01T00:00:00Z</time>
				</trkpt>
				<trkpt lat="58.13773" lon="7.06195">
					<ele>3</ele>
					<time>0001-01-01T00:00:00Z</time>
				</trkpt>
				<trkpt lat="58.13708" lon="7.05901">
					<ele>3</ele>
					<time>0001-01-01T00:00:00Z</time>
				</trkpt>
				<trkpt lat="58.13667" lon="7.05507">
					<ele>4</ele>
					<time>0001-01-01T00:00:00Z</time>
				</trkpt>
				<trkpt lat="58.13633" lon="7.05124">
					<ele>2</ele>
					<time>0001-01-01T00:00:00Z</time>
				</trkpt>
				<trkpt lat="58.13592" lon="7.04763">
					<ele>1</ele>
					<time>0001-01-01T00:00:00Z</time>
				</trkpt>
				<trkpt lat="58.13521" lon="7.04357">
					<ele>0</ele>
					<time>0001-01-01T00:00:00Z</time>
				</trkpt>
				<trkpt lat="58.13438" lon="7.04043">
					<ele>0</ele>
					<time>0001-01-01T00:00:00Z</time>
				</trkpt>
				<trkpt lat="58.13336" lon="7.03850">
					<ele>-1</ele>
					<time>0001-01-01T00:00:00Z</time>
				</trkpt>
				<trkpt lat="58.13246" lon="7.03685">
					<ele>-1</ele>
					<time>0001-01-01T00:00:00Z</time>
				</trkpt>
				<trkpt lat="58.13210" lon="7.03702">
					<ele>-1</ele>
					<time>0001-01-01T00:00:00Z</time>
				</trkpt>
				<trkpt lat="58.13125" lon="7.03848">
					<ele>0</ele>
					<time>0001-01-01T00:00:00Z</time>
				</trkpt>
				<trkpt lat="58.13109" lon="7.03912">
					<ele>0</ele>
					<time>0001-01-01T00:00:00Z</time>
				</trkpt>
				<trkpt lat="58.13053" lon="7.04108">
					<ele>2</ele>
					<time>0001-01-01T00:00:00Z</time>
				</trkpt>
				<trkpt lat="58.12889" lon="7.04360">
					<ele>2</ele>
					<time>0001-01-01T00:00:00Z</time>
				</trkpt>
				<trkpt lat="58.12724" lon="7.04535">
					<ele>0</ele>
					<time>0001-01-01T00:00:00Z</time>
				</trkpt>
				<trkpt lat="58.12585" lon="7.04612">
					<ele>2</ele>
					<time>0001-01-01T00:00:00Z</time>
				</trkpt>
				<trkpt lat="58.12450" lon="7.04705">
					<ele>6</ele>
					<time>0001-01-01T00:00:00Z</time>
				</trkpt>
				<trkpt lat="58.12326" lon="7.04769">
					<ele>1</ele>
					<time>0001-01-01T00:00:00Z</time>
				</trkpt>
				<trkpt lat="58.12311" lon="7.04849">
					<ele>0</ele>
					<time>0001-01-01T00:00:00Z</time>
				</trkpt>
				<trkpt lat="58.12344" lon="7.05165">
					<ele>0</ele>
					<time>0001-01-01T00:00:00Z</time>
				</trkpt>
				<trkpt lat="58.12359" lon="7.05300">
					<ele>0</ele>
					<time>0001-01-01T00:00:00Z</time>
				</trkpt>
				<trkpt lat="58.12343" lon="7.05323">
					<ele>0</ele>
					<time>0001-01-01T00:00:00Z</time>
				</trkpt>
				<trkpt lat="58.12334" lon="7.05323">
					<ele>0</ele>
					<time>0001-01-01T00:00:00Z</time>
				</trkpt>
				<trkpt lat="58.12313" lon="7.05331">
					<ele>1</ele>
					<time>0001-01-01T00:00:00Z</time>
				</trkpt>
				<trkpt lat="58.12294" lon="7.05309">
					<ele>2</ele>
					<time>0001-01-01T00:00:00Z</time>
				</trkpt>
				<trkpt lat="58.12295" lon="7.05301">
					<ele>6</ele>
					<time>0001-01-01T00:00:00Z</time>
				</trkpt>
				<trkpt lat="58.12293" lon="7.05302">
					<ele>10</ele>
					<time>0001-01-01T00:00:00Z</time>
				</trkpt>
				<trkpt lat="58.12293" lon="7.05301">
					<ele>10</ele>
					<time>0001-01-01T00:00:00Z</time>
				</trkpt>
				<trkpt lat="58.12307" lon="7.05331">
					<ele>8</ele>
					<time>0001-01-01T00:00:00Z</time>
				</trkpt>
				<trkpt lat="58.12318" lon="7.05346">
					<ele>3</ele>
					<time>0001-01-01T00:00:00Z</time>
				</trkpt>
				<trkpt lat="58.12318" lon="7.05344">
					<ele>4</ele>
					<time>0001-01-01T00:00:00Z</time>
				</trkpt>
				<trkpt lat="58.12319" lon="7.05340">
					<ele>0</ele>
					<time>0001-01-01T00:00:00Z</time>
				</trkpt>
				<trkpt lat="58.12318" lon="7.05338">
					<ele>-3</ele>
					<time>0001-01-01T00:00:00Z</time>
				</trkpt>
				<trkpt lat="58.12317" lon="7.05337">
					<ele>-1</ele>
					<time>0001-01-01T00:00:00Z</time>
				</trkpt>
				<trkpt lat="58.12316" lon="7.05336">
					<ele>0</ele>
					<time>0001-01-01T00:00:00Z</time>
				</trkpt>
				<trkpt lat="58.12318" lon="7.05335">
					<ele>0</ele>
					<time>0001-01-01T00:00:00Z</time>
				</trkpt>
				<trkpt lat="58.12310" lon="7.05329">
					<ele>1</ele>
					<time>0001-01-01T00:00:00Z</time>
				</trkpt>
				<trkpt lat="58.12307" lon="7.05332">
					<ele>1</ele>
					<time>0001-01-01T00:00:00Z</time>
				</trkpt>
				<trkpt lat="58.12308" lon="7.05330">
					<ele>5</ele>
					<time>0001-01-01T00:00:00Z</time>
				</trkpt>
				<trkpt lat="58.12293" lon="7.05308">
					<ele>3</ele>
					<time>0001-01-01T00:00:00Z</time>
				</trkpt>
				<trkpt lat="58.12292" lon="7.05308">
					<ele>10</ele>
					<time>0001-01-01T00:00:00Z</time>
				</trkpt>
				<trkpt lat="58.12293" lon="7.05307">
					<ele>9</ele>
					<time>0001-01-01T00:00:00Z</time>
				</trkpt>
				<trkpt lat="58.12294" lon="7.05306">
					<ele>8</ele>
					<time>0001-01-01T00:00:00Z</time>
				</trkpt>
				<trkpt lat="58.12293" lon="7.05306">
					<ele>8</ele>
					<time>0001-01-01T00:00:00Z</time>
				</trkpt>
				<trkpt lat="58.12293" lon="7.05309">
					<ele>7</ele>
					<time>0001-01-01T00:00:00Z</time>
				</trkpt>
				<trkpt lat="58.12293" lon="7.05313">
					<ele>9</ele>
					<time>0001-01-01T00:00:00Z</time>
				</trkpt>
				<trkpt lat="58.12295" lon="7.05313">
					<ele>12</ele>
					<time>0001-01-01T00:00:00Z</time>
				</trkpt>
				<trkpt lat="58.12295" lon="7.05312">
					<ele>11</ele>
					<time>0001-01-01T00:00:00Z</time>
				</trkpt>
				<trkpt lat="58.12297" lon="7.05310">
					<ele>7</ele>
					<time>0001-01-01T00:00:00Z</time>
				</trkpt>
				<trkpt lat="58.12298" lon="7.05307">
					<ele>6</ele>
					<time>0001-01-01T00:00:00Z</time>
				</trkpt>
				<trkpt lat="58.12297" lon="7.05306">
					<ele>7</ele>
					<time>0001-01-01T00:00:00Z</time>
				</trkpt>
				<trkpt lat="58.12296" lon="7.05307">
					<ele>8</ele>
					<time>0001-01-01T00:00:00Z</time>
				</trkpt>
				<trkpt lat="58.12295" lon="7.05308">
					<ele>6</ele>
					<time>0001-01-01T00:00:00Z</time>
				</trkpt>
				<trkpt lat="58.12297" lon="7.05310">
					<ele>8</ele>
					<time>0001-01-01T00:00:00Z</time>
				</trkpt>
				<trkpt lat="58.12298" lon="7.05309">
					<ele>6</ele>
					<time>0001-01-01T00:00:00Z</time>
				</trkpt>
				<trkpt lat="58.12298" lon="7.05308">
					<ele>5</ele>
					<time>0001-01-01T00:00:00Z</time>
				</trkpt>
				<trkpt lat="58.12296" lon="7.05305">
					<ele>3</ele>
					<time>0001-01-01T00:00:00Z</time>
				</trkpt>
				<trkpt lat="58.12297" lon="7.05310">
					<ele>4</ele>
					<time>0001-01-01T00:00:00Z</time>
				</trkpt>
				<trkpt lat="58.12297" lon="7.05310">
					<ele>4</ele>
					<time>0001-01-01T00:00:00Z</time>
				</trkpt>
		</trkseg>
	</trk>
</gpx>
